CW9600 Weather Reports


Display with metric or nautical units.
time (UTC)temp
F
wind
direction
speed
MPH
gust
MPH
rain 1hr
in
rain 24hr
in
rain mn
in
humidity
%
barometer
mb
20260903001403 64 223 12.0 19.0 0.00 0.01 0.00 90
20260903001324 64 223 12.0 19.0 0.00 0.01 0.00 90
20260903001203 64 224 11.0 19.0 0.00 0.01 0.00 90
20260903001103 64 224 11.0 19.0 0.00 0.01 0.00 90
20260903001003 63 225 10.0 19.0 0.00 0.01 0.00 90
20260903000903 63 227 10.0 14.0 0.00 0.01 0.00 90
20260903000803 64 228 10.0 14.0 0.00 0.01 0.00 90
20260903000724 64 229 10.0 14.0 0.00 0.01 0.00 90
20260903000603 64 230 9.0 14.0 0.00 0.01 0.00 90
20260903000503 64 231 9.0 14.0 0.00 0.01 0.00 90
20260903000404 64 232 9.0 14.0 0.00 0.01 0.00 90
20260903000303 64 234 9.0 14.0 0.00 0.01 0.00 90
20260903000226 64 234 9.0 13.0 0.00 0.01 0.00 90
20260903000124 64 235 9.0 14.0 0.00 0.01 0.00 90
20260903000003 64 235 10.0 14.0 0.00 0.01 0.00 90
20260902235903 64 235 10.0 14.0 0.00 0.01 0.00 90
20260902235803 64 235 10.0 14.0 0.00 0.01 0.00 90
20260902235724 64 235 10.0 14.0 0.00 0.01 0.00 90
20260902235624 64 235 10.0 14.0 0.00 0.01 0.00 90
20260902235503 64 235 11.0 15.0 0.00 0.01 0.00 90
20260902235404 64 234 12.0 18.0 0.00 0.01 0.00 90
20260902235324 64 234 12.0 20.0 0.00 0.01 0.00 90
20260902235203 64 234 11.0 20.0 0.00 0.01 0.00 90
20260902235103 64 234 12.0 20.0 0.00 0.01 0.00 89
20260902235003 64 234 12.0 20.0 0.00 0.01 0.00 89
20260902234903 64 234 12.0 20.0 0.00 0.01 0.00 89
20260902234803 64 233 12.0 20.0 0.00 0.01 0.00 90
20260902234724 64 233 12.0 20.0 0.00 0.01 0.00 90
20260902234603 64 233 12.0 20.0 0.00 0.01 0.00 90
20260902234503 64 233 12.0 20.0 0.00 0.01 0.00 90
20260902234403 64 233 11.0 20.0 0.00 0.01 0.00 90
20260902234303 64 233 12.0 18.0 0.00 0.01 0.00 90
20260902234203 64 232 12.0 18.0 0.00 0.01 0.00 90
20260902234103 64 230 12.0 18.0 0.00 0.01 0.00 90
20260902234004 64 230 12.0 18.0 0.00 0.01 0.00 90
20260902233924 64 229 12.0 18.0 0.00 0.01 0.00 90
20260902233803 64 230 12.0 16.0 0.00 0.01 0.00 90
20260902233724 64 229 12.0 16.0 0.00 0.01 0.00 90
20260902233603 64 229 12.0 18.0 0.00 0.01 0.00 90
20260902233503 64 228 12.0 18.0 0.00 0.01 0.00 90
20260902233403 64 228 12.0 18.0 0.00 0.01 0.00 90
20260902233303 64 228 12.0 18.0 0.00 0.01 0.00 90
20260902233203 64 227 12.0 18.0 0.00 0.01 0.00 90
20260902233124 64 227 12.0 18.0 0.00 0.01 0.00 90
20260902233003 64 228 12.0 18.0 0.00 0.01 0.00 90
20260902232903 64 227 12.0 18.0 0.00 0.01 0.00 90
20260902232803 64 227 12.0 18.0 0.00 0.01 0.00 90
20260902232703 64 227 12.0 18.0 0.00 0.01 0.00 90
20260902232625 64 227 12.0 18.0 0.00 0.01 0.00 90
20260902232503 64 227 12.0 18.0 0.00 0.01 0.00 90
20260902232403 64 226 12.0 18.0 0.00 0.01 0.00 90
20260902232306 64 226 11.0 18.0 0.00 0.01 0.00 90
20260902232203 64 226 11.0 18.0 0.00 0.01 0.00 90
20260902232103 64 226 11.0 18.0 0.00 0.01 0.00 90
20260902232004 64 226 10.0 18.0 0.00 0.01 0.00 90
20260902231903 64 226 10.0 18.0 0.00 0.01 0.00 90
20260902231803 64 226 10.0 14.0 0.00 0.01 0.00 90
20260902231703 64 226 10.0 14.0 0.00 0.01 0.00 90
20260902231603 64 226 10.0 14.0 0.00 0.01 0.00 90
20260902231503 63 227 10.0 14.0 0.00 0.01 0.00 90
20260902231403 63 227 10.0 13.0 0.00 0.01 0.00 90
20260902231303 63 227 10.0 13.0 0.00 0.01 0.00 90
20260902231203 63 227 10.0 13.0 0.00 0.01 0.00 90
20260902231103 63 227 10.0 13.0 0.00 0.01 0.00 90
20260902231003 63 227 10.0 13.0 0.00 0.01 0.00 90
20260902230903 64 227 10.0 14.0 0.00 0.01 0.00 90
20260902230803 63 227 10.0 14.0 0.00 0.01 0.00 90
20260902230703 63 228 10.0 14.0 0.00 0.01 0.00 90
20260902230603 63 229 10.0 14.0 0.00 0.01 0.00 90
20260902230503 64 230 11.0 14.0 0.00 0.01 0.00 90
20260902230403 64 231 11.0 16.0 0.00 0.01 0.00 90
20260902230303 64 232 11.0 16.0 0.00 0.01 0.00 90
20260902230225 64 233 11.0 16.0 0.00 0.01 0.00 90
20260902230003 64 236 11.0 16.0 0.00 0.01 0.00 90
20260902225924 64 237 11.0 16.0 0.00 0.01 0.01 90
20260902225803 64 238 11.0 16.0 0.00 0.01 0.01 90
20260902225703 64 239 12.0 19.0 0.00 0.01 0.01 90
20260902225603 64 239 12.0 19.0 0.00 0.01 0.01 90
20260902225503 64 240 11.0 19.0 0.00 0.01 0.01 90
20260902225403 64 239 11.0 19.0 0.00 0.01 0.01 90
20260902225306 64 238 12.0 19.0 0.00 0.01 0.01 89
20260902225203 64 238 12.0 19.0 0.00 0.01 0.01 89
20260902225104 64 237 12.0 19.0 0.00 0.01 0.01 90
20260902225003 64 235 12.0 19.0 0.00 0.01 0.01 90
20260902224903 64 235 12.0 19.0 0.00 0.01 0.01 90
20260902224803 64 234 11.0 19.0 0.00 0.01 0.01 90
20260902224704 64 232 11.0 16.0 0.00 0.01 0.01 90
20260902224603 64 232 11.0 15.0 0.00 0.01 0.01 90
20260902224503 64 231 11.0 15.0 0.00 0.01 0.01 90
20260902224403 64 231 11.0 15.0 0.00 0.01 0.01 90
20260902224303 64 231 11.0 16.0 0.00 0.01 0.01 90
20260902224203 64 231 11.0 16.0 0.00 0.01 0.01 90
20260902224103 64 231 12.0 16.0 0.00 0.01 0.01 90
20260902224003 64 231 12.0 16.0 0.00 0.01 0.01 90
20260902223924 64 232 12.0 16.0 0.00 0.01 0.01 90
20260902223824 64 233 12.0 16.0 0.00 0.01 0.01 90
20260902223703 64 234 12.0 16.0 0.00 0.01 0.01 90
20260902223603 64 234 12.0 16.0 0.00 0.01 0.01 90
20260902223503 64 235 12.0 16.0 0.00 0.01 0.01 90
20260902223403 64 236 12.0 16.0 0.00 0.01 0.01 90
20260902223324 64 236 12.0 16.0 0.00 0.01 0.01 90
20260902223224 64 237 12.0 16.0 0.00 0.01 0.01 90
20260902223103 64 238 12.0 16.0 0.00 0.01 0.01 90
20260902223003 64 238 12.0 16.0 0.00 0.01 0.01 90
20260902222903 64 238 13.0 16.0 0.00 0.01 0.01 90
20260902222803 64 239 13.0 18.0 0.00 0.01 0.01 90
20260902222703 64 239 13.0 18.0 0.00 0.01 0.01 90
20260902222604 64 238 12.0 18.0 0.00 0.01 0.01 90
20260902222503 64 238 13.0 18.0 0.00 0.01 0.01 90
20260902222403 64 238 13.0 18.0 0.00 0.01 0.01 90
20260902222305 64 238 13.0 18.0 0.00 0.01 0.01 90
20260902222203 64 238 13.0 18.0 0.00 0.01 0.01 90
20260902222103 64 237 13.0 18.0 0.00 0.01 0.01 90
20260902222004 64 237 13.0 18.0 0.00 0.01 0.01 90
20260902221903 64 237 13.0 18.0 0.00 0.01 0.01 90
20260902221803 64 237 13.0 18.0 0.00 0.01 0.01 90
20260902221704 64 237 13.0 18.0 0.00 0.01 0.01 90
20260902221603 64 238 13.0 18.0 0.00 0.01 0.01 90
20260902221503 64 238 13.0 18.0 0.00 0.01 0.01 90
20260902221403 64 238 13.0 18.0 0.00 0.01 0.01 91
20260902221324 64 239 13.0 16.0 0.00 0.01 0.01 91
20260902221203 64 239 13.0 16.0 0.00 0.01 0.01 90
20260902221124 64 239 13.0 16.0 0.00 0.01 0.01 90
20260902221003 64 239 12.0 16.0 0.00 0.01 0.01 90
20260902220924 64 239 12.0 16.0 0.00 0.01 0.01 90
20260902220803 64 239 12.0 16.0 0.00 0.01 0.01 91
20260902220703 64 239 12.0 16.0 0.00 0.01 0.01 91
20260902220603 64 239 12.0 16.0 0.00 0.01 0.01 91
20260902220503 64 238 12.0 16.0 0.00 0.01 0.01 91
20260902220403 64 238 12.0 16.0 0.00 0.01 0.01 91
20260902220324 64 238 12.0 16.0 0.00 0.01 0.01 91
20260902220203 64 237 12.0 16.0 0.00 0.01 0.01 91
20260902220003 64 237 12.0 16.0 0.00 0.01 0.01 91
20260902215903 64 237 12.0 16.0 0.00 0.01 0.01 91
20260902215804 64 236 12.0 16.0 0.00 0.01 0.01 91
20260902215703 64 237 12.0 20.0 0.00 0.01 0.01 91
20260902215603 64 236 12.0 20.0 0.00 0.01 0.01 91
20260902215503 64 236 12.0 20.0 0.00 0.01 0.01 91
20260902215403 64 235 12.0 20.0 0.00 0.01 0.01 91
20260902215324 65 235 12.0 20.0 0.00 0.01 0.01 91
20260902215203 65 235 13.0 20.0 0.00 0.01 0.01 91
20260902215124 65 235 13.0 20.0 0.00 0.01 0.01 91
20260902215003 65 234 13.0 20.0 0.00 0.01 0.01 91
20260902214924 65 235 13.0 20.0 0.00 0.01 0.01 91
20260902214803 65 235 13.0 20.0 0.00 0.01 0.01 91
20260902214703 65 234 13.0 19.0 0.00 0.01 0.01 91
20260902214624 65 235 13.0 19.0 0.00 0.01 0.01 91
20260902214504 65 234 13.0 19.0 0.00 0.01 0.01 91
20260902214424 65 233 13.0 19.0 0.00 0.01 0.01 91
20260902214325 65 232 13.0 19.0 0.00 0.01 0.01 91
20260902214203 65 231 13.0 19.0 0.00 0.01 0.01 92
20260902214103 64 230 13.0 19.0 0.00 0.01 0.01 92
20260902214003 65 228 13.0 19.0 0.00 0.01 0.01 92
20260902213903 65 227 13.0 19.0 0.00 0.01 0.01 92
20260902213803 65 225 13.0 18.0 0.00 0.01 0.01 92
20260902213703 65 225 13.0 18.0 0.00 0.01 0.01 92
20260902213603 64 224 13.0 18.0 0.00 0.01 0.01 92
20260902213503 64 223 12.0 18.0 0.00 0.01 0.01 92
20260902213403 64 223 12.0 18.0 0.00 0.01 0.01 93
20260902213303 64 224 12.0 18.0 0.00 0.01 0.01 93
20260902213204 64 224 11.0 18.0 0.00 0.01 0.01 93
20260902213124 64 225 11.0 18.0 0.00 0.01 0.01 93
20260902213003 64 227 11.0 16.0 0.00 0.01 0.01 93
20260902212903 64 228 11.0 15.0 0.00 0.01 0.01 93
20260902212803 64 228 11.0 15.0 0.00 0.01 0.01 93
20260902212703 64 228 11.0 16.0 0.00 0.01 0.01 93
20260902212603 64 228 11.0 16.0 0.00 0.01 0.01 93
20260902212503 64 228 12.0 16.0 0.00 0.01 0.01 93
20260902212403 64 227 12.0 16.0 0.00 0.01 0.01 93
20260902212324 64 226 12.0 16.0 0.00 0.01 0.01 93
20260902212203 64 225 12.0 16.0 0.00 0.01 0.01 94
20260902212103 64 225 11.0 16.0 0.00 0.01 0.01 94
20260902212003 64 224 11.0 16.0 0.00 0.01 0.01 94
20260902211903 64 223 11.0 16.0 0.00 0.01 0.01 94
20260902211824 64 223 11.0 16.0 0.00 0.01 0.01 94
20260902211703 64 223 11.0 16.0 0.00 0.01 0.01 94
20260902211603 64 222 10.0 16.0 0.00 0.01 0.01 94
20260902211503 64 223 10.0 16.0 0.00 0.01 0.01 94
20260902211403 64 223 10.0 16.0 0.00 0.01 0.01 94
20260902211324 64 223 10.0 16.0 0.00 0.01 0.01 94
20260902211203 64 222 10.0 16.0 0.00 0.01 0.01 94
20260902211103 64 222 10.0 16.0 0.00 0.01 0.01 94
20260902211003 64 221 10.0 16.0 0.00 0.01 0.01 94
20260902210903 64 221 10.0 16.0 0.00 0.01 0.01 94
20260902210803 64 220 10.0 13.0 0.00 0.01 0.01 94
20260902210724 64 220 10.0 13.0 0.00 0.01 0.01 94
20260902210624 64 220 10.0 13.0 0.00 0.01 0.01 94
20260902210503 64 219 9.0 13.0 0.00 0.01 0.01 94
20260902210424 64 218 9.0 13.0 0.00 0.01 0.01 94
20260902210303 64 219 9.0 13.0 0.00 0.01 0.01 94
20260902210204 64 219 9.0 13.0 0.00 0.01 0.01 94
20260902210103 65 218 9.0 13.0 0.00 0.01 0.01 94
20260902210004 65 219 9.0 13.0 0.00 0.01 0.01 94
20260902205924 64 218 9.0 13.0 0.00 0.01 0.01 94
20260902205803 65 217 9.0 13.0 0.00 0.01 0.01 95
20260902205724 64 217 9.0 13.0 0.00 0.01 0.01 95
20260902205603 64 216 10.0 13.0 0.00 0.01 0.01 95
20260902205503 65 215 10.0 13.0 0.00 0.01 0.01 95
20260902205403 65 215 10.0 15.0 0.00 0.01 0.01 95
20260902205306 65 215 10.0 15.0 0.00 0.01 0.01 95
20260902205203 64 214 10.0 15.0 0.00 0.01 0.01 95
20260902205124 65 215 10.0 15.0 0.00 0.01 0.01 95
20260902205003 65 214 10.0 15.0 0.00 0.01 0.01 95
20260902204903 64 215 10.0 15.0 0.00 0.01 0.01 95
20260902204803 64 215 10.0 15.0 0.00 0.01 0.01 95
20260902204724 64 215 10.0 15.0 0.00 0.01 0.01 95
20260902204604 64 215 10.0 15.0 0.00 0.01 0.01 95
20260902204503 64 216 10.0 15.0 0.00 0.01 0.01 95
20260902204403 64 216 10.0 13.0 0.00 0.01 0.01 95
20260902204305 64 216 10.0 13.0 0.00 0.01 0.01 95
20260902204203 64 216 10.0 13.0 0.00 0.01 0.01 95
20260902204103 64 216 10.0 13.0 0.00 0.01 0.01 95
20260902204024 64 216 10.0 13.0 0.00 0.01 0.01 95
20260902203903 64 216 10.0 13.0 0.00 0.01 0.01 95
20260902203803 64 215 10.0 13.0 0.00 0.01 0.01 95
20260902203703 64 216 10.0 13.0 0.00 0.01 0.01 95
20260902203603 64 216 10.0 13.0 0.00 0.01 0.01 95
20260902203503 64 216 10.0 13.0 0.00 0.01 0.01 95
20260902203403 64 216 10.0 13.0 0.00 0.01 0.01 95
20260902203303 64 217 10.0 15.0 0.00 0.01 0.01 95
20260902203203 64 217 10.0 15.0 0.00 0.01 0.01 95
20260902203103 64 217 10.0 15.0 0.00 0.01 0.01 95
20260902203003 64 217 10.0 15.0 0.00 0.01 0.01 95
20260902202903 64 217 10.0 15.0 0.00 0.01 0.01 95
20260902202803 64 216 10.0 15.0 0.00 0.01 0.01 95
20260902202703 64 216 10.0 15.0 0.00 0.01 0.01 95
20260902202603 64 215 10.0 15.0 0.00 0.01 0.01 95
20260902202503 64 215 10.0 15.0 0.00 0.01 0.01 95
20260902202403 64 215 10.0 15.0 0.00 0.01 0.01 95
20260902202324 64 215 10.0 14.0 0.00 0.01 0.01 95
20260902202203 64 215 10.0 14.0 0.00 0.01 0.01 95
20260902202103 64 214 10.0 13.0 0.00 0.01 0.01 95
20260902202003 64 214 10.0 13.0 0.00 0.01 0.01 95
20260902201903 64 215 10.0 15.0 0.00 0.01 0.01 95
20260902201802 64 215 10.0 15.0 0.00 0.01 0.01 95
20260902201702 64 214 10.0 15.0 0.00 0.01 0.01 95
20260902201602 64 214 11.0 15.0 0.00 0.01 0.01 95
20260902201523 64 214 11.0 15.0 0.00 0.01 0.01 95
20260902201402 64 215 10.0 15.0 0.00 0.01 0.01 95
20260902201323 64 215 10.0 15.0 0.00 0.01 0.01 95
20260902201202 64 214 10.0 15.0 0.00 0.01 0.01 95
20260902201102 64 215 10.0 15.0 0.00 0.01 0.01 95
20260902201023 64 215 10.0 15.0 0.00 0.01 0.01 95
20260902200923 64 215 10.0 14.0 0.00 0.01 0.01 95
20260902200802 64 215 10.0 14.0 0.00 0.01 0.01 95
20260902200702 64 215 10.0 14.0 0.00 0.01 0.01 95
20260902200623 64 214 10.0 15.0 0.00 0.01 0.01 95
20260902200502 64 214 10.0 15.0 0.00 0.01 0.01 95
20260902200402 64 214 10.0 15.0 0.00 0.01 0.01 95
20260902200302 64 214 10.0 15.0 0.00 0.01 0.01 95
20260902200223 64 213 10.0 15.0 0.00 0.01 0.01 95
20260902200002 64 214 10.0 15.0 0.00 0.01 0.01 95
20260902195902 64 214 10.0 15.0 0.00 0.01 0.01 95
20260902195802 64 214 10.0 15.0 0.00 0.01 0.01 95
20260902195702 64 214 10.0 15.0 0.00 0.01 0.01 95
20260902195602 64 213 10.0 16.0 0.00 0.01 0.01 95
20260902195502 64 212 10.0 16.0 0.00 0.01 0.01 95
20260902195403 64 211 10.0 16.0 0.00 0.01 0.01 95
20260902195306 64 211 11.0 16.0 0.00 0.01 0.01 95
20260902195202 64 210 11.0 16.0 0.00 0.01 0.01 95
20260902195102 64 208 11.0 16.0 0.00 0.01 0.01 95
20260902195023 64 207 11.0 16.0 0.00 0.01 0.01 95
20260902194902 64 205 11.0 16.0 0.00 0.01 0.01 95
20260902194802 64 205 11.0 16.0 0.00 0.01 0.01 95
20260902194702 64 204 11.0 16.0 0.00 0.01 0.01 95
20260902194602 64 204 10.0 15.0 0.00 0.01 0.01 95
20260902194502 64 205 10.0 15.0 0.00 0.01 0.01 95
20260902194403 64 204 10.0 13.0 0.00 0.01 0.01 95
20260902194302 64 203 10.0 13.0 0.00 0.01 0.01 95
20260902194223 64 203 10.0 13.0 0.00 0.01 0.01 95
20260902194123 64 203 10.0 13.0 0.00 0.01 0.01 95
20260902194002 64 203 10.0 12.0 0.00 0.01 0.01 95
20260902193902 64 202 9.0 12.0 0.00 0.01 0.01 95
20260902193802 64 201 9.0 12.0 0.00 0.01 0.01 95
20260902193702 64 199 9.0 12.0 0.00 0.01 0.01 95
20260902193602 64 199 9.0 12.0 0.00 0.01 0.01 95
20260902193502 64 199 10.0 13.0 0.00 0.01 0.01 95
20260902193424 64 199 10.0 13.0 0.00 0.01 0.01 95
20260902193303 64 200 10.0 13.0 0.00 0.01 0.01 95
20260902193223 64 201 10.0 13.0 0.00 0.01 0.01 95
20260902193102 64 203 10.0 13.0 0.00 0.01 0.01 95
20260902193002 64 205 10.0 13.0 0.00 0.01 0.01 95
20260902192902 64 207 10.0 13.0 0.00 0.01 0.01 95
20260902192802 64 208 10.0 13.0 0.00 0.01 0.01 95
20260902192702 64 209 10.0 13.0 0.00 0.01 0.01 95
20260902192602 64 208 10.0 13.0 0.00 0.01 0.01 95
20260902192502 64 208 10.0 13.0 0.00 0.01 0.01 95
20260902192403 64 208 9.0 13.0 0.00 0.01 0.01 95
20260902192302 64 206 9.0 13.0 0.00 0.01 0.01 95
20260902192223 64 205 9.0 13.0 0.00 0.01 0.01 95
20260902192102 64 203 10.0 13.0 0.00 0.01 0.01 95
20260902192002 64 202 10.0 13.0 0.00 0.01 0.01 95
20260902191923 64 201 10.0 13.0 0.00 0.01 0.01 95
20260902191802 64 200 10.0 13.0 0.00 0.01 0.01 95
20260902191702 64 200 9.0 13.0 0.00 0.01 0.01 95
20260902191602 64 201 9.0 13.0 0.00 0.01 0.01 95
20260902191502 64 202 10.0 13.0 0.00 0.01 0.01 95
20260902191423 64 202 10.0 14.0 0.00 0.01 0.01 95
20260902191302 64 203 10.0 14.0 0.00 0.01 0.01 95
20260902191202 64 203 10.0 14.0 0.00 0.01 0.01 95
20260902191102 64 203 10.0 15.0 0.00 0.01 0.01 95
20260902191002 64 202 10.0 15.0 0.00 0.01 0.01 95
20260902190902 64 201 10.0 15.0 0.00 0.01 0.01 95
20260902190802 64 200 10.0 15.0 0.00 0.01 0.01 95
20260902190702 64 198 10.0 15.0 0.00 0.01 0.01 95
20260902190602 64 197 10.0 15.0 0.00 0.01 0.01 95
20260902190523 64 196 10.0 15.0 0.00 0.01 0.01 95
20260902190403 64 193 10.0 15.0 0.00 0.01 0.01 95
20260902190323 64 193 10.0 15.0 0.00 0.01 0.01 95
20260902190202 64 192 9.0 15.0 0.00 0.01 0.01 95
20260902190002 64 190 9.0 14.0 0.00 0.01 0.01 95
20260902185902 64 190 9.0 14.0 0.00 0.01 0.01 95
20260902185802 64 191 10.0 14.0 0.00 0.01 0.01 95
20260902185702 64 192 9.0 14.0 0.00 0.01 0.01 95
20260902185602 64 192 9.0 14.0 0.00 0.01 0.01 95
20260902185523 64 192 9.0 14.0 0.00 0.01 0.01 95
20260902185423 64 192 9.0 14.0 0.00 0.01 0.01 95
20260902185306 63 191 9.0 14.0 0.00 0.01 0.01 95
20260902185203 63 192 9.0 14.0 0.00 0.01 0.01 95
20260902185102 64 192 10.0 15.0 0.00 0.01 0.01 95
20260902185002 63 191 10.0 15.0 0.00 0.01 0.01 95
20260902184902 63 191 10.0 15.0 0.00 0.01 0.01 95
20260902184802 63 190 10.0 15.0 0.01 0.01 0.01 95
20260902184702 63 190 10.0 15.0 0.01 0.01 0.01 95
20260902184602 63 190 10.0 15.0 0.01 0.01 0.01 95
20260902184502 63 190 11.0 15.0 0.01 0.01 0.01 95
20260902184402 63 191 11.0 15.0 0.01 0.01 0.01 95
20260902184302 63 192 11.0 15.0 0.01 0.01 0.01 95
20260902184202 63 192 11.0 15.0 0.01 0.01 0.01 95
20260902184102 63 193 11.0 15.0 0.01 0.01 0.01 95
20260902184023 63 193 11.0 15.0 0.01 0.01 0.01 95
20260902183902 63 194 10.0 15.0 0.01 0.01 0.01 95
20260902183802 63 194 10.0 14.0 0.01 0.01 0.01 95
20260902183702 63 194 10.0 14.0 0.01 0.01 0.01 95
20260902183602 63 194 10.0 14.0 0.01 0.01 0.01 95
20260902183502 63 195 10.0 18.0 0.01 0.01 0.01 95
20260902183402 63 195 11.0 18.0 0.01 0.01 0.01 95
20260902183302 63 196 11.0 18.0 0.01 0.01 0.01 95
20260902183202 63 195 10.0 18.0 0.01 0.01 0.01 95
20260902183123 63 195 10.0 18.0 0.01 0.01 0.01 95
20260902183002 63 195 10.0 18.0 0.01 0.01 0.01 95
20260902182902 63 194 10.0 18.0 0.01 0.01 0.01 95
20260902182802 63 194 10.0 18.0 0.01 0.01 0.01 95
20260902182702 63 193 10.0 18.0 0.01 0.01 0.01 95
20260902182603 63 191 10.0 18.0 0.01 0.01 0.01 95
20260902182502 63 189 9.0 16.0 0.01 0.01 0.01 95
20260902182424 63 189 9.0 15.0 0.01 0.01 0.01 95
20260902182306 63 186 9.0 14.0 0.01 0.01 0.01 95
20260902182202 63 185 9.0 15.0 0.01 0.01 0.01 95
20260902182102 63 185 9.0 15.0 0.01 0.01 0.01 95
20260902182002 63 184 9.0 15.0 0.01 0.01 0.01 95
20260902181902 63 184 10.0 15.0 0.01 0.01 0.01 95
20260902181823 63 184 10.0 15.0 0.01 0.01 0.01 95
20260902181702 63 184 9.0 15.0 0.01 0.01 0.01 95
20260902181602 63 185 9.0 15.0 0.01 0.01 0.01 95
20260902181502 63 185 9.0 15.0 0.01 0.01 0.01 95
20260902181402 63 184 9.0 15.0 0.01 0.01 0.01 95
20260902181302 63 184 9.0 15.0 0.01 0.01 0.01 95
20260902181202 63 185 9.0 14.0 0.01 0.01 0.01 95
20260902181102 63 185 9.0 14.0 0.01 0.01 0.01 95
20260902181002 63 186 9.0 14.0 0.01 0.01 0.01 95
20260902180902 63 186 9.0 14.0 0.01 0.01 0.01 95
20260902180802 63 186 9.0 14.0 0.01 0.01 0.01 95
20260902180724 63 187 9.0 14.0 0.01 0.01 0.01 95
20260902180623 63 187 9.0 14.0 0.01 0.01 0.01 95
20260902180502 63 188 9.0 13.0 0.01 0.01 0.01 95
20260902180402 63 188 8.0 13.0 0.01 0.01 0.01 94
20260902180302 63 189 9.0 13.0 0.01 0.01 0.01 94
20260902180202 63 190 9.0 13.0 0.01 0.01 0.01 94
20260902180023 63 191 9.0 13.0 0.01 0.01 0.01 94
20260902175902 63 192 9.0 13.0 0.01 0.01 0.01 94
20260902175802 63 193 9.0 13.0 0.01 0.01 0.01 94
20260902175702 63 194 10.0 13.0 0.01 0.01 0.01 94
20260902175602 63 194 10.0 14.0 0.01 0.01 0.01 94
20260902175502 63 195 10.0 14.0 0.01 0.01 0.01 94
20260902175402 63 195 10.0 14.0 0.01 0.01 0.01 94
20260902175323 63 195 10.0 14.0 0.01 0.01 0.01 94
20260902175202 63 195 10.0 14.0 0.01 0.01 0.01 94
20260902175102 63 195 10.0 14.0 0.01 0.01 0.01 94
20260902175002 63 195 11.0 14.0 0.01 0.01 0.01 94
20260902174902 63 195 11.0 14.0 0.01 0.01 0.01 94
20260902174802 63 195 11.0 15.0 0.00 0.00 0.00 94
20260902174702 63 195 11.0 19.0 0.00 0.00 0.00 94
20260902174602 63 195 11.0 19.0 0.00 0.00 0.00 94
20260902174502 63 194 11.0 19.0 0.00 0.00 0.00 94
20260902174402 63 194 11.0 19.0 0.00 0.00 0.00 94
20260902174302 63 195 12.0 19.0 0.00 0.00 0.00 94
20260902174202 63 195 12.0 19.0 0.00 0.00 0.00 94
20260902174102 63 195 12.0 19.0 0.00 0.00 0.00 94
20260902174002 63 195 11.0 19.0 0.00 0.00 0.00 94
20260902173902 63 195 11.0 19.0 0.00 0.00 0.00 94
20260902173802 63 195 11.0 19.0 0.00 0.00 0.00 94
20260902173703 63 196 11.0 16.0 0.00 0.00 0.00 94
20260902173602 63 196 12.0 16.0 0.00 0.00 0.00 94
20260902173502 63 196 12.0 16.0 0.00 0.00 0.00 93
20260902173402 63 196 12.0 16.0 0.00 0.00 0.00 94
20260902173323 63 196 12.0 19.0 0.00 0.00 0.00 94
20260902173202 63 196 13.0 19.0 0.00 0.00 0.00 93
20260902173102 63 196 13.0 19.0 0.00 0.00 0.00 93
20260902173002 63 196 13.0 19.0 0.00 0.00 0.00 93
20260902172902 63 196 13.0 19.0 0.00 0.00 0.00 93
20260902172802 63 196 13.0 19.0 0.00 0.00 0.00 93
20260902172702 63 195 13.0 19.0 0.00 0.00 0.00 93
20260902172624 63 196 13.0 19.0 0.00 0.00 0.00 93
20260902172502 63 195 13.0 19.0 0.00 0.00 0.00 93
20260902172402 63 196 12.0 19.0 0.00 0.00 0.00 93
20260902172307 63 195 12.0 19.0 0.00 0.00 0.00 93
20260902172202 63 195 12.0 19.0 0.00 0.00 0.00 93
20260902172102 63 195 12.0 19.0 0.00 0.00 0.00 93
20260902172002 63 196 12.0 19.0 0.00 0.00 0.00 93
20260902171902 63 195 12.0 19.0 0.00 0.00 0.00 93
20260902171802 63 195 12.0 19.0 0.00 0.00 0.00 93
20260902171723 63 196 12.0 16.0 0.00 0.00 0.00 93
20260902171602 63 196 12.0 19.0 0.00 0.00 0.00 93
20260902171502 63 196 13.0 19.0 0.00 0.00 0.00 93
20260902171402 63 197 13.0 19.0 0.00 0.00 0.00 93
20260902171302 63 197 13.0 19.0 0.00 0.00 0.00 93
20260902171202 63 198 13.0 19.0 0.00 0.00 0.00 93
20260902171103 63 198 13.0 19.0 0.00 0.00 0.00 93
20260902171002 63 197 13.0 19.0 0.00 0.00 0.00 93
20260902170902 63 197 13.0 19.0 0.00 0.00 0.00 93
20260902170824 63 197 13.0 19.0 0.00 0.00 0.00 93
20260902170702 63 196 12.0 19.0 0.00 0.00 0.00 93
20260902170623 63 195 12.0 19.0 0.00 0.00 0.00 93
20260902170523 63 194 12.0 19.0 0.00 0.00 0.00 93
20260902170402 63 194 11.0 19.0 0.00 0.00 0.00 93
20260902170302 63 193 11.0 19.0 0.00 0.00 0.00 93
20260902170202 63 192 11.0 19.0 0.00 0.00 0.00 92
20260902170103 63 192 11.0 19.0 0.00 0.00 0.00 92
20260902170023 63 192 11.0 19.0 0.00 0.00 0.00 92
20260902165902 63 191 10.0 16.0 0.00 0.00 0.00 92
20260902165823 63 191 10.0 16.0 0.00 0.00 0.00 92
20260902165723 63 190 11.0 16.0 0.00 0.00 0.00 92
20260902165602 63 190 10.0 16.0 0.00 0.00 0.00 93
20260902165502 63 189 10.0 15.0 0.00 0.00 0.00 92
20260902165402 63 188 10.0 15.0 0.00 0.00 0.00 92
20260902165323 63 188 10.0 15.0 0.00 0.00 0.00 92
20260902165202 63 188 10.0 15.0 0.00 0.00 0.00 92
20260902165102 63 187 10.0 16.0 0.00 0.00 0.00 92
20260902165002 63 186 10.0 16.0 0.00 0.00 0.00 92
20260902164902 63 187 10.0 16.0 0.00 0.00 0.00 92
20260902164802 62 187 10.0 16.0 0.00 0.00 0.00 92
20260902164702 62 186 9.0 16.0 0.00 0.00 0.00 93
20260902164602 62 186 9.0 16.0 0.00 0.00 0.00 92
20260902164502 62 186 9.0 16.0 0.00 0.00 0.00 92
20260902164402 62 186 9.0 16.0 0.00 0.00 0.00 93
20260902164323 62 185 9.0 16.0 0.00 0.00 0.00 93
20260902164202 62 183 9.0 16.0 0.00 0.00 0.00 93
20260902164102 62 181 9.0 15.0 0.00 0.00 0.00 93
20260902164002 62 182 9.0 15.0 0.00 0.00 0.00 92
20260902163902 62 180 9.0 15.0 0.00 0.00 0.00 92
20260902163802 62 180 9.0 15.0 0.00 0.00 0.00 92
20260902163702 62 180 9.0 15.0 0.00 0.00 0.00 92
20260902163602 62 179 9.0 15.0 0.00 0.00 0.00 92
20260902163502 62 180 9.0 15.0 0.00 0.00 0.00 92
20260902163402 62 180 9.0 15.0 0.00 0.00 0.00 92
20260902163302 62 178 9.0 15.0 0.00 0.00 0.00 92
20260902163202 62 178 9.0 15.0 0.00 0.00 0.00 92
20260902163102 62 179 9.0 15.0 0.00 0.00 0.00 92
20260902163003 62 179 8.0 15.0 0.00 0.00 0.00 92
20260902162924 62 179 8.0 15.0 0.00 0.00 0.00 92
20260902162802 62 179 8.0 15.0 0.00 0.00 0.00 93
20260902162723 62 180 8.0 15.0 0.00 0.00 0.00 93
20260902162602 62 182 8.0 13.0 0.00 0.00 0.00 93
20260902162523 62 182 8.0 13.0 0.00 0.00 0.00 93
20260902162402 62 183 8.0 13.0 0.00 0.00 0.00 93
20260902162306 62 184 8.0 13.0 0.00 0.00 0.00 93
20260902162202 62 184 8.0 13.0 0.00 0.00 0.00 93
20260902162123 62 185 8.0 13.0 0.00 0.00 0.00 93
20260902162002 62 185 8.0 14.0 0.00 0.00 0.00 93
20260902161923 62 185 8.0 14.0 0.00 0.00 0.00 93
20260902161802 62 185 9.0 15.0 0.00 0.00 0.00 93
20260902161702 62 185 9.0 15.0 0.00 0.00 0.00 93
20260902161602 62 184 9.0 15.0 0.00 0.00 0.00 93
20260902161502 62 185 9.0 15.0 0.00 0.00 0.00 93
20260902161402 62 184 9.0 15.0 0.00 0.00 0.00 93
20260902161302 62 185 9.0 15.0 0.00 0.00 0.00 92
20260902161202 62 184 9.0 15.0 0.00 0.00 0.00 93
20260902161123 62 185 10.0 15.0 0.00 0.00 0.00 93
20260902161002 62 185 10.0 15.0 0.00 0.00 0.00 93
20260902160923 62 185 10.0 15.0 0.00 0.00 0.00 93
20260902160802 62 185 10.0 15.0 0.00 0.00 0.00 92
20260902160702 62 186 10.0 15.0 0.00 0.00 0.00 93
20260902160602 62 186 10.0 15.0 0.00 0.00 0.00 92
20260902160502 62 185 9.0 14.0 0.00 0.00 0.00 92
20260902160402 62 185 9.0 14.0 0.00 0.00 0.00 92
20260902160302 62 184 9.0 14.0 0.00 0.00 0.00 92
20260902160202 62 184 9.0 15.0 0.00 0.00 0.00 92
20260902160003 62 184 9.0 15.0 0.00 0.00 0.00 93
20260902155903 62 183 9.0 15.0 0.00 0.00 0.00 92
20260902155823 61 183 9.0 15.0 0.00 0.00 0.00 92
20260902155702 61 182 9.0 15.0 0.00 0.00 0.00 92
20260902155623 61 182 9.0 15.0 0.00 0.00 0.00 92
20260902155502 62 182 9.0 16.0 0.00 0.00 0.00 92
20260902155402 62 183 10.0 16.0 0.00 0.00 0.00 92
20260902155302 61 183 10.0 16.0 0.00 0.00 0.00 92
20260902155223 62 183 10.0 16.0 0.00 0.00 0.00 92
20260902155102 61 183 10.0 16.0 0.00 0.00 0.00 92
20260902155002 61 184 10.0 16.0 0.00 0.00 0.00 92
20260902154902 61 185 10.0 16.0 0.00 0.00 0.00 92
20260902154802 61 186 10.0 16.0 0.00 0.00 0.00 92
20260902154702 62 187 10.0 16.0 0.00 0.00 0.00 92
20260902154623 62 188 10.0 16.0 0.00 0.00 0.00 92
20260902154502 62 189 10.0 15.0 0.00 0.00 0.00 92
20260902154402 62 188 10.0 15.0 0.00 0.00 0.00 92
20260902154302 62 189 10.0 15.0 0.00 0.00 0.00 92
20260902154202 62 189 9.0 15.0 0.00 0.00 0.00 92
20260902154102 62 189 9.0 15.0 0.00 0.00 0.00 92
20260902154023 62 188 9.0 15.0 0.00 0.00 0.00 92
20260902153902 62 188 8.0 15.0 0.00 0.00 0.00 92
20260902153802 62 187 8.0 15.0 0.00 0.00 0.00 92
20260902153702 62 186 8.0 15.0 0.00 0.00 0.00 92
20260902153602 62 185 8.0 12.0 0.00 0.00 0.00 92
20260902153502 62 184 8.0 14.0 0.00 0.00 0.00 92
20260902153402 62 184 8.0 14.0 0.00 0.00 0.00 92
20260902153302 62 184 8.0 14.0 0.00 0.00 0.00 92
20260902153202 62 184 8.0 14.0 0.00 0.00 0.00 92
20260902153102 62 185 8.0 14.0 0.00 0.00 0.00 92
20260902153002 62 186 9.0 15.0 0.00 0.00 0.00 92
20260902152902 62 188 10.0 18.0 0.00 0.00 0.00 92
20260902152802 62 190 10.0 18.0 0.00 0.00 0.00 92
20260902152702 62 192 11.0 18.0 0.00 0.00 0.00 92
20260902152602 62 192 11.0 19.0 0.00 0.00 0.00 92
20260902152502 62 193 12.0 19.0 0.00 0.00 0.00 92
20260902152402 62 194 12.0 19.0 0.00 0.00 0.00 91
20260902152307 62 195 13.0 19.0 0.00 0.00 0.00 91
20260902152202 62 195 13.0 19.0 0.00 0.00 0.00 91
20260902152102 62 195 13.0 19.0 0.00 0.00 0.00 91
20260902152023 62 194 13.0 19.0 0.00 0.00 0.00 91
20260902151902 62 194 12.0 19.0 0.00 0.00 0.00 91
20260902151802 62 193 12.0 19.0 0.00 0.00 0.00 91
20260902151702 62 193 12.0 19.0 0.00 0.00 0.00 91
20260902151602 62 193 12.0 19.0 0.00 0.00 0.00 91
20260902151523 62 194 12.0 19.0 0.00 0.00 0.00 91
20260902151423 62 194 12.0 19.0 0.00 0.00 0.00 90
20260902151303 62 193 11.0 19.0 0.00 0.00 0.00 91
20260902151202 63 194 11.0 19.0 0.00 0.00 0.00 91
20260902151102 63 194 11.0 19.0 0.00 0.00 0.00 91
20260902151002 63 195 11.0 19.0 0.00 0.00 0.00 91
20260902150903 63 196 12.0 19.0 0.00 0.00 0.00 90
20260902150802 63 196 11.0 19.0 0.00 0.00 0.00 90
20260902150723 63 195 11.0 19.0 0.00 0.00 0.00 90
20260902150602 63 195 11.0 19.0 0.00 0.00 0.00 90
20260902150502 63 195 12.0 19.0 0.00 0.00 0.00 90
20260902150402 63 194 12.0 19.0 0.00 0.00 0.00 90
20260902150302 63 194 13.0 20.0 0.00 0.00 0.00 89
20260902150202 63 194 13.0 20.0 0.00 0.00 0.00 89
20260902150123 63 194 13.0 20.0 0.00 0.00 0.00 89
20260902150002 63 193 13.0 20.0 0.00 0.00 0.00 88
20260902145902 63 192 13.0 20.0 0.00 0.00 0.00 88
20260902145802 63 192 13.0 20.0 0.00 0.00 0.00 88
20260902145702 63 192 13.0 20.0 0.00 0.00 0.00 87
20260902145602 63 192 13.0 20.0 0.00 0.00 0.00 87
20260902145502 63 193 13.0 20.0 0.00 0.00 0.00 87
20260902145402 63 194 13.0 20.0 0.00 0.00 0.00 87
20260902145305 64 194 13.0 20.0 0.00 0.00 0.00 87
20260902145203 64 194 13.0 20.0 0.00 0.00 0.00 86
20260902145102 64 193 13.0 20.0 0.00 0.00 0.00 86
20260902145002 64 192 13.0 20.0 0.00 0.00 0.00 85
20260902144902 64 193 13.0 20.0 0.00 0.00 0.00 85
20260902144802 64 194 13.0 20.0 0.00 0.00 0.00 85
20260902144702 64 195 13.0 20.0 0.00 0.00 0.00 84
20260902144602 64 194 14.0 20.0 0.00 0.00 0.00 84
20260902144523 64 194 14.0 20.0 0.00 0.00 0.00 84
20260902144402 64 193 14.0 20.0 0.00 0.00 0.00 83
20260902144302 64 193 14.0 21.0 0.00 0.00 0.00 83
20260902144202 64 193 14.0 21.0 0.00 0.00 0.00 83
20260902144103 65 193 14.0 21.0 0.00 0.00 0.00 83
20260902144002 65 194 14.0 21.0 0.00 0.00 0.00 83
20260902143902 65 194 13.0 21.0 0.00 0.00 0.00 83
20260902143802 65 193 13.0 21.0 0.00 0.00 0.00 82
20260902143702 65 192 14.0 21.0 0.00 0.00 0.00 82
20260902143623 65 192 14.0 21.0 0.00 0.00 0.00 82
20260902143502 64 192 14.0 21.0 0.00 0.00 0.00 82
20260902143402 64 193 15.0 21.0 0.00 0.00 0.00 82
20260902143302 64 193 15.0 22.0 0.00 0.00 0.00 83
20260902143202 64 193 15.0 22.0 0.00 0.00 0.00 83
20260902143123 64 193 15.0 22.0 0.00 0.00 0.00 83
20260902143002 64 194 15.0 22.0 0.00 0.00 0.00 83
20260902142902 64 194 16.0 22.0 0.00 0.00 0.00 83
20260902142802 64 195 16.0 22.0 0.00 0.00 0.00 83
20260902142704 64 196 16.0 22.0 0.00 0.00 0.00 83
20260902142602 64 197 16.0 22.0 0.00 0.00 0.00 83
20260902142502 64 197 16.0 22.0 0.00 0.00 0.00 83
20260902142402 64 198 16.0 23.0 0.00 0.00 0.00 83
20260902142305 64 199 16.0 23.0 0.00 0.00 0.00 83
20260902142202 64 200 16.0 23.0 0.00 0.00 0.00 83
20260902142102 64 201 16.0 23.0 0.00 0.00 0.00 83
20260902142002 64 203 16.0 23.0 0.00 0.00 0.00 82
20260902141902 64 203 15.0 23.0 0.00 0.00 0.00 82
20260902141802 65 204 15.0 23.0 0.00 0.00 0.00 82
20260902141723 65 205 15.0 23.0 0.00 0.00 0.00 82
20260902141602 65 206 15.0 23.0 0.00 0.00 0.00 80
20260902141502 65 208 14.0 23.0 0.00 0.00 0.00 80
20260902141423 65 207 14.0 22.0 0.00 0.00 0.00 80
20260902141302 66 207 13.0 20.0 0.00 0.00 0.00 79
20260902141202 66 205 14.0 20.0 0.00 0.00 0.00 78
20260902141102 66 205 13.0 20.0 0.00 0.00 0.00 78
20260902141002 66 204 13.0 18.0 0.00 0.00 0.00 77
20260902140902 66 203 13.0 18.0 0.00 0.00 0.00 77
20260902140802 66 203 13.0 19.0 0.00 0.00 0.00 77
20260902140702 66 200 13.0 19.0 0.00 0.00 0.00 76
20260902140602 66 199 13.0 19.0 0.00 0.00 0.00 76
20260902140502 66 197 13.0 19.0 0.00 0.00 0.00 76
20260902140402 66 197 13.0 19.0 0.00 0.00 0.00 76
20260902140323 66 197 13.0 19.0 0.00 0.00 0.00 76
20260902140202 66 199 13.0 19.0 0.00 0.00 0.00 76
20260902140002 66 198 12.0 19.0 0.00 0.00 0.00 75
20260902135903 66 198 12.0 19.0 0.00 0.00 0.00 75
20260902135823 66 199 12.0 18.0 0.00 0.00 0.00 75
20260902135702 66 202 12.0 18.0 0.00 0.00 0.00 76
20260902135602 66 203 12.0 16.0 0.00 0.00 0.00 76
20260902135502 66 203 12.0 18.0 0.00 0.00 0.00 76
20260902135402 66 204 12.0 18.0 0.00 0.00 0.00 76
20260902135306 66 205 12.0 18.0 0.00 0.00 0.00 75
20260902135202 66 204 12.0 18.0 0.00 0.00 0.00 75
20260902135102 67 204 13.0 18.0 0.00 0.00 0.00 75
20260902135002 67 205 13.0 18.0 0.00 0.00 0.00 74
20260902134902 67 206 14.0 18.0 0.00 0.00 0.00 74
20260902134802 67 205 14.0 18.0 0.00 0.00 0.00 74
20260902134702 67 203 14.0 18.0 0.00 0.00 0.00 74
20260902134602 67 202 14.0 18.0 0.00 0.00 0.00 73
20260902134523 67 202 14.0 18.0 0.00 0.00 0.00 73
20260902134402 67 202 14.0 18.0 0.00 0.00 0.00 73
20260902134302 67 202 14.0 18.0 0.00 0.00 0.00 73
20260902134223 67 203 14.0 18.0 0.00 0.00 0.00 73
20260902134102 67 204 13.0 18.0 0.00 0.00 0.00 72
20260902134002 67 204 13.0 18.0 0.00 0.00 0.00 72
20260902133903 67 204 13.0 18.0 0.00 0.00 0.00 73
20260902133823 67 204 13.0 20.0 0.00 0.00 0.00 73
20260902133703 67 208 14.0 20.0 0.00 0.00 0.00 73
20260902133602 67 209 14.0 20.0 0.00 0.00 0.00 73
20260902133502 67 209 14.0 20.0 0.00 0.00 0.00 73
20260902133402 67 209 14.0 20.0 0.00 0.00 0.00 72
20260902133302 67 209 14.0 20.0 0.00 0.00 0.00 72
20260902133202 67 208 14.0 20.0 0.00 0.00 0.00 72
20260902133102 68 207 13.0 20.0 0.00 0.00 0.00 72
20260902133002 68 207 13.0 20.0 0.00 0.00 0.00 72
20260902132902 68 206 13.0 20.0 0.00 0.00 0.00 72
20260902132802 68 204 12.0 20.0 0.00 0.00 0.00 73
20260902132702 68 201 12.0 19.0 0.00 0.00 0.00 72
20260902132623 68 200 12.0 19.0 0.00 0.00 0.00 72
20260902132523 68 198 12.0 19.0 0.00 0.00 0.00 72
20260902132402 68 196 12.0 19.0 0.00 0.00 0.00 72
20260902132323 68 195 12.0 19.0 0.00 0.00 0.00 72
20260902132202 68 192 11.0 18.0 0.00 0.00 0.00 72
20260902132102 68 194 12.0 18.0 0.00 0.00 0.00 72
20260902132002 68 194 12.0 18.0 0.00 0.00 0.00 72
20260902131902 68 193 12.0 16.0 0.00 0.00 0.00 72
20260902131802 67 194 12.0 16.0 0.00 0.00 0.00 71
20260902131702 67 196 12.0 16.0 0.00 0.00 0.00 71
20260902131623 67 196 12.0 16.0 0.00 0.00 0.00 71
20260902131502 67 198 12.0 16.0 0.00 0.00 0.00 71
20260902131423 67 199 12.0 16.0 0.00 0.00 0.00 71
20260902131302 67 200 12.0 16.0 0.00 0.00 0.00 71
20260902131202 67 199 11.0 16.0 0.00 0.00 0.00 72
20260902131123 67 199 11.0 16.0 0.00 0.00 0.00 72
20260902131002 67 198 11.0 16.0 0.00 0.00 0.00 71
20260902130902 67 199 11.0 16.0 0.00 0.00 0.00 70
20260902130803 67 199 11.0 16.0 0.00 0.00 0.00 71
20260902130702 67 199 11.0 16.0 0.00 0.00 0.00 71
20260902130602 67 200 11.0 15.0 0.00 0.00 0.00 72
20260902130502 67 200 11.0 15.0 0.00 0.00 0.00 72
20260902130402 67 200 11.0 15.0 0.00 0.00 0.00 72
20260902130323 67 200 11.0 15.0 0.00 0.00 0.00 72
20260902130202 67 200 11.0 15.0 0.00 0.00 0.00 74
20260902130002 67 200 10.0 16.0 0.00 0.00 0.00 74
20260902125902 66 200 10.0 16.0 0.00 0.00 0.00 75
20260902125802 66 201 10.0 16.0 0.00 0.00 0.00 76
20260902125702 66 202 10.0 16.0 0.00 0.00 0.00 75
20260902125602 66 203 10.0 16.0 0.00 0.00 0.00 75
20260902125502 66 204 10.0 16.0 0.00 0.00 0.00 75
20260902125402 66 206 10.0 16.0 0.00 0.00 0.00 75
20260902125305 66 209 10.0 16.0 0.00 0.00 0.00 75
20260902125202 66 211 10.0 16.0 0.00 0.00 0.00 76
20260902125102 66 212 10.0 13.0 0.00 0.00 0.00 76
20260902125002 66 216 10.0 13.0 0.00 0.00 0.00 77
20260902124902 66 217 10.0 13.0 0.00 0.00 0.00 77
20260902124802 66 218 10.0 13.0 0.00 0.00 0.00 78
20260902124702 66 217 10.0 18.0 0.00 0.00 0.00 77
20260902124602 66 219 11.0 18.0 0.00 0.00 0.00 77
20260902124502 66 221 11.0 18.0 0.00 0.00 0.00 77
20260902124402 66 222 11.0 18.0 0.00 0.00 0.00 77
20260902124302 66 223 12.0 18.0 0.00 0.00 0.00 76
20260902124202 66 222 12.0 19.0 0.00 0.00 0.00 76
20260902124102 66 221 13.0 19.0 0.00 0.00 0.00 75
20260902124002 66 219 13.0 19.0 0.00 0.00 0.00 75
20260902123902 66 218 13.0 19.0 0.00 0.00 0.00 75
20260902123823 66 219 13.0 19.0 0.00 0.00 0.00 75
20260902123702 66 221 13.0 19.0 0.00 0.00 0.00 75
20260902123623 66 221 13.0 19.0 0.00 0.00 0.00 75
20260902123502 66 220 13.0 19.0 0.00 0.00 0.00 75
20260902123402 66 220 13.0 19.0 0.00 0.00 0.00 74
20260902123302 66 218 13.0 19.0 0.00 0.00 0.00 74
20260902123202 66 218 13.0 19.0 0.00 0.00 0.00 75
20260902123102 66 219 14.0 19.0 0.00 0.00 0.00 75
20260902123002 66 219 14.0 20.0 0.00 0.00 0.00 75
20260902122902 66 219 14.0 20.0 0.00 0.00 0.00 75
20260902122823 66 218 14.0 20.0 0.00 0.00 0.00 75
20260902122702 66 216 15.0 21.0 0.00 0.00 0.00 75
20260902122602 66 216 15.0 21.0 0.00 0.00 0.00 75
20260902122502 66 215 15.0 21.0 0.00 0.00 0.00 75
20260902122402 66 214 15.0 21.0 0.00 0.00 0.00 75
20260902122305 66 214 15.0 21.0 0.00 0.00 0.00 74
20260902122223 66 215 15.0 21.0 0.00 0.00 0.00 74
20260902122102 66 216 14.0 21.0 0.00 0.00 0.00 74
20260902122002 66 217 14.0 21.0 0.00 0.00 0.00 73
20260902121902 66 218 13.0 21.0 0.00 0.00 0.00 73
20260902121802 67 219 13.0 20.0 0.00 0.00 0.00 74
20260902121702 67 221 14.0 20.0 0.00 0.00 0.00 73
20260902121602 67 221 14.0 20.0 0.00 0.00 0.00 73
20260902121502 67 221 14.0 20.0 0.00 0.00 0.00 73
20260902121402 67 223 14.0 20.0 0.00 0.00 0.00 74
20260902121302 67 224 14.0 20.0 0.00 0.00 0.00 75
20260902121202 67 225 13.0 20.0 0.00 0.00 0.00 74
20260902121102 67 226 14.0 20.0 0.00 0.00 0.00 73
20260902121002 67 227 14.0 20.0 0.00 0.00 0.00 73
20260902120902 67 228 14.0 20.0 0.00 0.00 0.00 72
20260902120802 67 229 13.0 20.0 0.00 0.00 0.00 73
20260902120702 68 229 14.0 19.0 0.00 0.00 0.00 72
20260902120602 68 231 13.0 19.0 0.00 0.00 0.00 73
20260902120502 68 233 14.0 19.0 0.00 0.00 0.00 74
20260902120402 68 234 14.0 19.0 0.00 0.00 0.00 74
20260902120302 67 235 14.0 20.0 0.00 0.00 0.00 73
20260902120223 67 235 14.0 20.0 0.00 0.00 0.00 73
20260902120002 67 234 14.0 20.0 0.00 0.00 0.00 72
20260902115923 67 234 14.0 20.0 0.00 0.00 0.00 72
20260902115823 67 233 14.0 20.0 0.00 0.00 0.00 72
20260902115702 67 232 14.0 20.0 0.00 0.00 0.00 72
20260902115603 67 230 15.0 20.0 0.00 0.00 0.00 72
20260902115502 67 228 14.0 20.0 0.00 0.00 0.00 72
20260902115402 67 228 14.0 20.0 0.00 0.00 0.00 72
20260902115306 67 226 14.0 20.0 0.00 0.00 0.00 73
20260902115202 67 225 13.0 20.0 0.00 0.00 0.00 73
20260902115102 67 223 13.0 20.0 0.00 0.00 0.00 73
20260902115023 67 224 13.0 18.0 0.00 0.00 0.00 73
20260902114902 67 225 13.0 18.0 0.00 0.00 0.00 73
20260902114803 67 224 12.0 18.0 0.00 0.00 0.00 72
20260902114702 67 226 12.0 18.0 0.00 0.00 0.00 73
20260902114602 67 229 12.0 18.0 0.00 0.00 0.00 74
20260902114502 67 231 12.0 16.0 0.00 0.00 0.00 74
20260902114423 67 231 12.0 16.0 0.00 0.00 0.00 74
20260902114302 67 234 12.0 16.0 0.00 0.00 0.00 74
20260902114202 67 235 12.0 18.0 0.00 0.00 0.00 75
20260902114102 67 236 12.0 18.0 0.00 0.00 0.00 75
20260902114002 67 237 12.0 20.0 0.00 0.00 0.00 74
20260902113902 67 236 12.0 20.0 0.00 0.00 0.00 74
20260902113802 66 236 12.0 20.0 0.00 0.00 0.00 75
20260902113702 66 234 13.0 20.0 0.00 0.00 0.00 74
20260902113602 66 233 13.0 20.0 0.00 0.00 0.00 74
20260902113523 66 233 13.0 20.0 0.00 0.00 0.00 74
20260902113402 66 231 13.0 20.0 0.00 0.00 0.00 74
20260902113323 66 231 13.0 20.0 0.00 0.00 0.00 74
20260902113223 66 230 13.0 20.0 0.00 0.00 0.00 75
20260902113103 66 229 13.0 20.0 0.00 0.00 0.00 75
20260902113002 66 227 13.0 19.0 0.00 0.00 0.00 75
20260902112902 66 228 13.0 19.0 0.00 0.00 0.00 76
20260902112802 66 229 14.0 19.0 0.00 0.00 0.00 75
20260902112723 66 228 14.0 21.0 0.00 0.00 0.00 75
20260902112602 66 226 14.0 21.0 0.00 0.00 0.00 75
20260902112502 66 226 14.0 21.0 0.00 0.00 0.00 75
20260902112402 66 226 14.0 21.0 0.00 0.00 0.00 75
20260902112305 66 226 14.0 21.0 0.00 0.00 0.00 75
20260902112202 66 227 15.0 21.0 0.00 0.00 0.00 75
20260902112102 66 226 15.0 21.0 0.00 0.00 0.00 74
20260902112002 67 225 15.0 21.0 0.00 0.00 0.00 74
20260902111903 67 224 14.0 21.0 0.00 0.00 0.00 74
20260902111802 67 223 14.0 21.0 0.00 0.00 0.00 75
20260902111702 67 221 14.0 18.0 0.00 0.00 0.00 76
20260902111602 66 222 14.0 18.0 0.00 0.00 0.00 76
20260902111502 66 222 14.0 18.0 0.00 0.00 0.00 75
20260902111402 66 222 13.0 18.0 0.00 0.00 0.00 76
20260902111302 66 221 13.0 18.0 0.00 0.00 0.00 75
20260902111202 66 221 12.0 18.0 0.00 0.00 0.00 75
20260902111123 66 222 12.0 18.0 0.00 0.00 0.00 75
20260902111002 66 222 12.0 18.0 0.00 0.00 0.00 76
20260902110902 66 222 12.0 16.0 0.00 0.00 0.00 75
20260902110802 66 223 12.0 16.0 0.00 0.00 0.00 76
20260902110702 67 226 11.0 15.0 0.00 0.00 0.00 78
20260902110623 66 226 11.0 15.0 0.00 0.00 0.00 78
20260902110502 66 225 12.0 15.0 0.00 0.00 0.00 77
20260902110423 66 224 12.0 15.0 0.00 0.00 0.00 77
20260902110302 66 224 12.0 15.0 0.00 0.00 0.00 77
20260902110202 66 224 12.0 15.0 0.00 0.00 0.00 76
20260902110003 66 223 11.0 15.0 0.00 0.00 0.00 77
20260902105923 65 222 11.0 15.0 0.00 0.00 0.00 77
20260902105823 65 221 11.0 15.0 0.00 0.00 0.00 77
20260902105702 65 221 12.0 15.0 0.00 0.00 0.00 77
20260902105623 65 220 12.0 15.0 0.00 0.00 0.00 77
20260902105523 65 220 12.0 15.0 0.00 0.00 0.00 77
20260902105402 65 220 12.0 15.0 0.00 0.00 0.00 78
20260902105306 65 219 12.0 15.0 0.00 0.00 0.00 78
20260902105223 65 218 12.0 15.0 0.00 0.00 0.00 78
20260902105102 65 218 12.0 15.0 0.00 0.00 0.00 78
20260902105002 65 218 12.0 15.0 0.00 0.00 0.00 78
20260902104923 65 219 12.0 15.0 0.00 0.00 0.00 78
20260902104802 65 219 12.0 15.0 0.00 0.00 0.00 78
20260902104702 65 217 12.0 15.0 0.00 0.00 0.00 79
20260902104602 65 216 11.0 15.0 0.00 0.00 0.00 79
20260902104523 65 217 11.0 15.0 0.00 0.00 0.00 79
20260902104402 65 219 11.0 15.0 0.00 0.00 0.00 79
20260902104302 65 219 11.0 15.0 0.00 0.00 0.00 78
20260902104202 65 218 11.0 15.0 0.00 0.00 0.00 79
20260902104102 65 217 11.0 15.0 0.00 0.00 0.00 79
20260902104002 65 219 11.0 16.0 0.00 0.00 0.00 80
20260902103903 65 220 11.0 16.0 0.00 0.00 0.00 80
20260902103802 65 221 11.0 16.0 0.00 0.00 0.00 79
20260902103723 64 221 11.0 16.0 0.00 0.00 0.00 79
20260902103602 64 222 11.0 16.0 0.00 0.00 0.00 80
20260902103502 65 221 11.0 16.0 0.00 0.00 0.00 80
20260902103402 64 220 12.0 16.0 0.00 0.00 0.00 80
20260902103302 64 222 12.0 16.0 0.00 0.00 0.00 81
20260902103202 64 222 12.0 16.0 0.00 0.00 0.00 81
20260902103102 64 222 12.0 16.0 0.00 0.00 0.00 81
20260902103002 64 220 12.0 16.0 0.00 0.00 0.00 80
20260902102902 64 220 12.0 16.0 0.00 0.00 0.00 81
20260902102802 64 220 12.0 16.0 0.00 0.00 0.00 81
20260902102702 64 221 13.0 20.0 0.00 0.00 0.00 80
20260902102602 64 222 13.0 20.0 0.00 0.00 0.00 81
20260902102502 64 224 13.0 20.0 0.00 0.00 0.00 81
20260902102402 64 225 13.0 20.0 0.00 0.00 0.00 82
20260902102307 64 226 13.0 20.0 0.00 0.00 0.00 82
20260902102223 64 226 13.0 20.0 0.00 0.00 0.00 82
20260902102102 64 228 13.0 20.0 0.00 0.00 0.00 83
20260902102002 64 228 12.0 20.0 0.00 0.00 0.00 83
20260902101902 63 228 12.0 20.0 0.00 0.00 0.00 82
20260902101802 63 228 12.0 20.0 0.00 0.00 0.00 82
20260902101723 63 228 12.0 16.0 0.00 0.00 0.00 82
20260902101623 63 226 12.0 16.0 0.00 0.00 0.00 82
20260902101523 63 224 12.0 16.0 0.00 0.00 0.00 82
20260902101402 63 221 11.0 15.0 0.00 0.00 0.00 83
20260902101302 63 219 12.0 15.0 0.00 0.00 0.00 83
20260902101202 63 218 12.0 15.0 0.00 0.00 0.00 83
20260902101102 63 218 12.0 15.0 0.00 0.00 0.00 83
20260902101002 63 218 12.0 15.0 0.00 0.00 0.00 83
20260902100902 63 216 12.0 15.0 0.00 0.00 0.00 83
20260902100802 63 216 12.0 15.0 0.00 0.00 0.00 83
20260902100702 63 217 11.0 15.0 0.00 0.00 0.00 83
20260902100623 63 217 11.0 14.0 0.00 0.00 0.00 83
20260902100523 63 217 11.0 14.0 0.00 0.00 0.00 83
20260902100402 63 216 11.0 14.0 0.00 0.00 0.00 83
20260902100302 63 217 11.0 14.0 0.00 0.00 0.00 83
20260902100202 63 218 10.0 14.0 0.00 0.00 0.00 83
20260902100002 63 219 10.0 14.0 0.00 0.00 0.00 84
20260902095902 63 220 10.0 14.0 0.00 0.00 0.00 84
20260902095802 63 219 10.0 13.0 0.00 0.00 0.00 84
20260902095702 63 219 10.0 13.0 0.00 0.00 0.00 84
20260902095603 62 219 10.0 13.0 0.00 0.00 0.00 84
20260902095502 62 221 10.0 13.0 0.00 0.00 0.00 84
20260902095402 62 222 10.0 13.0 0.00 0.00 0.00 84
20260902095306 62 223 10.0 13.0 0.00 0.00 0.00 84
20260902095202 62 223 10.0 13.0 0.00 0.00 0.00 84
20260902095102 62 223 10.0 13.0 0.00 0.00 0.00 84
20260902095002 62 223 10.0 14.0 0.00 0.00 0.00 84
20260902094902 62 224 11.0 14.0 0.00 0.00 0.00 84
20260902094802 62 225 10.0 14.0 0.00 0.00 0.00 84
20260902094702 62 227 10.0 14.0 0.00 0.00 0.00 84
20260902094602 62 227 10.0 14.0 0.00 0.00 0.00 84
20260902094502 62 226 11.0 14.0 0.00 0.00 0.00 84
20260902094402 62 226 11.0 14.0 0.00 0.00 0.00 84
20260902094303 62 225 11.0 14.0 0.00 0.00 0.00 84
20260902094203 62 224 11.0 14.0 0.00 0.00 0.00 83
20260902094123 62 224 11.0 14.0 0.00 0.00 0.00 83
20260902094002 62 224 11.0 14.0 0.00 0.00 0.00 83
20260902093902 62 223 11.0 14.0 0.00 0.00 0.00 84
20260902093823 62 221 11.0 14.0 0.00 0.00 0.00 84
20260902093723 62 220 11.0 14.0 0.00 0.00 0.00 84
20260902093602 62 220 11.0 14.0 0.00 0.00 0.00 83
20260902093523 62 220 11.0 14.0 0.00 0.00 0.00 83
20260902093402 62 219 11.0 14.0 0.00 0.00 0.00 83
20260902093302 62 219 11.0 14.0 0.00 0.00 0.00 84
20260902093202 62 220 11.0 14.0 0.00 0.00 0.00 83
20260902093102 62 218 11.0 14.0 0.00 0.00 0.00 84
20260902093023 62 218 11.0 14.0 0.00 0.00 0.00 84
20260902092902 62 220 11.0 14.0 0.00 0.00 0.00 84
20260902092802 62 221 11.0 14.0 0.00 0.00 0.00 84
20260902092702 62 222 11.0 14.0 0.00 0.00 0.00 84
20260902092602 62 222 10.0 14.0 0.00 0.00 0.00 84
20260902092502 62 223 10.0 14.0 0.00 0.00 0.00 84
20260902092402 62 222 11.0 14.0 0.00 0.00 0.00 84
20260902092305 62 222 10.0 14.0 0.00 0.00 0.00 84
20260902092223 62 222 10.0 14.0 0.00 0.00 0.00 84
20260902092102 62 222 11.0 14.0 0.00 0.00 0.00 84
20260902092002 62 223 11.0 14.0 0.00 0.00 0.00 84
20260902091902 62 223 11.0 14.0 0.00 0.00 0.00 84
20260902091802 62 223 11.0 14.0 0.00 0.00 0.00 84
20260902091702 62 224 11.0 14.0 0.00 0.00 0.00 84
20260902091602 62 224 11.0 14.0 0.00 0.00 0.00 84
20260902091523 62 225 11.0 14.0 0.00 0.00 0.00 84
20260902091402 62 226 10.0 14.0 0.00 0.00 0.00 84
20260902091302 62 228 10.0 14.0 0.00 0.00 0.00 84
20260902091202 62 229 10.0 14.0 0.00 0.00 0.00 84
20260902091102 62 229 10.0 14.0 0.00 0.00 0.00 84
20260902091002 62 229 11.0 14.0 0.00 0.00 0.00 84
20260902090902 62 229 11.0 14.0 0.00 0.00 0.00 84
20260902090802 62 229 11.0 14.0 0.00 0.00 0.00 84
20260902090702 62 228 11.0 14.0 0.00 0.00 0.00 84
20260902090602 62 227 11.0 14.0 0.00 0.00 0.00 84
20260902090502 62 227 11.0 14.0 0.00 0.00 0.00 84
20260902090402 62 226 11.0 14.0 0.00 0.00 0.00 84
20260902090302 62 225 11.0 14.0 0.00 0.00 0.00 84
20260902090223 62 225 11.0 14.0 0.00 0.00 0.00 84
20260902090002 62 225 10.0 14.0 0.00 0.00 0.00 84
20260902085902 62 225 10.0 13.0 0.00 0.00 0.00 84
20260902085823 62 224 10.0 14.0 0.00 0.00 0.00 84
20260902085723 62 224 10.0 14.0 0.00 0.00 0.00 84
20260902085602 62 225 11.0 14.0 0.00 0.00 0.00 84
20260902085523 62 225 11.0 14.0 0.00 0.00 0.00 84
20260902085402 62 226 11.0 14.0 0.00 0.00 0.00 84
20260902085323 62 227 11.0 14.0 0.00 0.00 0.00 84
20260902085202 62 228 11.0 14.0 0.00 0.00 0.00 84
20260902085102 61 227 11.0 14.0 0.00 0.00 0.00 84
20260902085002 61 226 10.0 14.0 0.00 0.00 0.00 85
20260902084903 61 227 10.0 14.0 0.00 0.00 0.00 84
20260902084802 61 228 11.0 14.0 0.00 0.00 0.00 84
20260902084702 61 229 11.0 14.0 0.00 0.00 0.00 84
20260902084602 61 230 10.0 14.0 0.00 0.00 0.00 85
20260902084502 61 229 10.0 14.0 0.00 0.00 0.00 85
20260902084423 61 228 10.0 14.0 0.00 0.00 0.00 85
20260902084302 61 227 11.0 14.0 0.00 0.00 0.00 85
20260902084202 61 227 11.0 14.0 0.00 0.00 0.00 85
20260902084102 61 228 11.0 15.0 0.00 0.00 0.00 85
20260902084002 61 229 11.0 15.0 0.00 0.00 0.00 85
20260902083902 61 228 11.0 15.0 0.00 0.00 0.00 85
20260902083802 61 227 11.0 15.0 0.00 0.00 0.00 85
20260902083723 61 226 11.0 15.0 0.00 0.00 0.00 85
20260902083602 61 226 11.0 15.0 0.00 0.00 0.00 85
20260902083503 61 227 11.0 15.0 0.00 0.00 0.00 85
20260902083402 61 227 11.0 15.0 0.00 0.00 0.00 85
20260902083302 61 227 11.0 15.0 0.00 0.00 0.00 85
20260902083224 61 227 11.0 15.0 0.00 0.00 0.00 85
20260902083123 61 227 10.0 15.0 0.00 0.00 0.00 85
20260902083023 61 227 10.0 13.0 0.00 0.00 0.00 85
20260902082902 61 227 11.0 13.0 0.00 0.00 0.00 85
20260902082802 61 228 10.0 13.0 0.00 0.00 0.00 85
20260902082702 61 228 11.0 13.0 0.00 0.00 0.00 85
20260902082602 61 227 11.0 13.0 0.00 0.00 0.00 85
20260902082502 61 227 11.0 13.0 0.00 0.00 0.00 85
20260902082402 61 228 11.0 13.0 0.00 0.00 0.00 85
20260902082308 61 228 11.0 15.0 0.00 0.00 0.00 85
20260902082202 61 228 11.0 15.0 0.00 0.00 0.00 85
20260902082102 61 228 11.0 15.0 0.00 0.00 0.00 85
20260902082002 61 227 11.0 15.0 0.00 0.00 0.00 85
20260902081902 61 226 12.0 15.0 0.00 0.00 0.00 85
20260902081823 61 227 12.0 15.0 0.00 0.00 0.00 85
20260902081702 61 226 12.0 16.0 0.00 0.00 0.00 85
20260902081623 61 226 12.0 16.0 0.00 0.00 0.00 85
20260902081502 61 225 12.0 16.0 0.00 0.00 0.00 85
20260902081402 61 224 12.0 16.0 0.00 0.00 0.00 85
20260902081302 61 223 12.0 16.0 0.00 0.00 0.00 85
20260902081202 61 223 11.0 16.0 0.00 0.00 0.00 85
20260902081102 61 223 11.0 16.0 0.00 0.00 0.00 85
20260902081002 61 224 10.0 16.0 0.00 0.00 0.00 86
20260902080902 60 225 10.0 16.0 0.00 0.00 0.00 86
20260902080802 60 225 10.0 16.0 0.00 0.00 0.00 86
20260902080702 60 225 9.0 15.0 0.00 0.00 0.00 86
20260902080602 60 227 9.0 15.0 0.00 0.00 0.00 86
20260902080502 60 229 9.0 14.0 0.00 0.00 0.00 86
20260902080402 60 230 9.0 14.0 0.00 0.00 0.00 86
20260902080302 60 230 10.0 15.0 0.00 0.00 0.00 86
20260902080202 60 230 10.0 18.0 0.00 0.00 0.00 86
20260902080003 60 229 11.0 18.0 0.00 0.00 0.00 86
20260902075923 60 228 11.0 18.0 0.00 0.00 0.00 86
20260902075802 60 228 11.0 18.0 0.00 0.00 0.00 86
20260902075702 60 228 12.0 18.0 0.00 0.00 0.00 86
20260902075602 60 228 12.0 18.0 0.00 0.00 0.00 86
20260902075502 60 227 11.0 18.0 0.00 0.00 0.00 86
20260902075402 60 227 12.0 18.0 0.00 0.00 0.00 86
20260902075323 60 227 12.0 18.0 0.00 0.00 0.00 86
20260902075202 60 227 12.0 15.0 0.00 0.00 0.00 86
20260902075102 60 225 12.0 16.0 0.00 0.00 0.00 86
20260902075002 60 225 12.0 16.0 0.00 0.00 0.00 86
20260902074902 60 225 12.0 16.0 0.00 0.00 0.00 86
20260902074802 60 225 12.0 16.0 0.00 0.00 0.00 86
20260902074702 60 224 11.0 16.0 0.00 0.00 0.00 86
20260902074602 60 225 12.0 16.0 0.00 0.00 0.00 86
20260902074502 60 224 12.0 16.0 0.00 0.00 0.00 86
20260902074402 60 223 12.0 16.0 0.00 0.00 0.00 86
20260902074302 60 224 12.0 16.0 0.00 0.00 0.00 86
20260902074223 60 223 12.0 16.0 0.00 0.00 0.00 86
20260902074102 60 224 12.0 15.0 0.00 0.00 0.00 86
20260902074002 60 224 12.0 16.0 0.00 0.00 0.00 86
20260902073902 60 224 12.0 18.0 0.00 0.00 0.00 86
20260902073802 60 224 12.0 18.0 0.00 0.00 0.00 86
20260902073702 60 224 13.0 18.0 0.00 0.00 0.00 86
20260902073602 60 224 13.0 18.0 0.00 0.00 0.00 86
20260902073502 60 226 13.0 18.0 0.00 0.00 0.00 86
20260902073423 60 226 13.0 18.0 0.00 0.00 0.00 86
20260902073302 60 226 12.0 18.0 0.00 0.00 0.00 86
20260902073202 60 226 12.0 18.0 0.00 0.00 0.00 86
20260902073102 60 227 12.0 18.0 0.00 0.00 0.00 86
20260902073003 60 227 12.0 18.0 0.00 0.00 0.00 86
20260902072902 60 225 12.0 18.0 0.00 0.00 0.00 86
20260902072803 60 225 12.0 16.0 0.00 0.00 0.00 86
20260902072702 60 225 12.0 16.0 0.00 0.00 0.00 86
20260902072602 60 224 12.0 16.0 0.00 0.00 0.00 86
20260902072502 60 223 12.0 16.0 0.00 0.00 0.00 86
20260902072402 60 223 12.0 16.0 0.00 0.00 0.00 86
20260902072323 60 223 12.0 16.0 0.00 0.00 0.00 86
20260902072202 60 224 12.0 15.0 0.00 0.00 0.00 86
20260902072102 60 224 12.0 15.0 0.00 0.00 0.00 86
20260902072002 60 224 12.0 15.0 0.00 0.00 0.00 85
20260902071902 60 225 12.0 15.0 0.00 0.00 0.00 85
20260902071823 60 224 12.0 15.0 0.00 0.00 0.00 85
20260902071704 60 225 11.0 15.0 0.00 0.00 0.00 85
20260902071602 60 225 11.0 14.0 0.00 0.00 0.00 85
20260902071503 60 225 11.0 14.0 0.00 0.00 0.00 85
20260902071402 60 225 11.0 14.0 0.00 0.00 0.00 85
20260902071323 60 225 11.0 14.0 0.00 0.00 0.00 85
20260902071202 60 224 11.0 15.0 0.00 0.00 0.00 85
20260902071102 60 224 11.0 15.0 0.00 0.00 0.00 85
20260902071023 60 224 11.0 15.0 0.00 0.00 0.00 85
20260902070902 60 225 12.0 15.0 0.00 0.00 0.00 85
20260902070802 60 224 12.0 16.0 0.00 0.00 0.00 85
20260902070702 60 224 11.0 16.0 0.00 0.00 0.00 85
20260902070602 60 224 11.0 16.0 0.00 0.00 0.00 85
20260902070502 60 225 11.0 16.0 0.00 0.00 0.00 86
20260902070402 60 225 11.0 16.0 0.00 0.00 0.00 86
20260902070302 60 225 11.0 16.0 0.00 0.00 0.00 86
20260902070203 60 225 11.0 16.0 0.00 0.00 0.00 86
20260902070023 60 225 11.0 16.0 0.00 0.00 0.00 86
20260902065902 60 225 10.0 16.0 0.00 0.00 0.00 87
20260902065802 60 226 10.0 14.0 0.00 0.00 0.00 87
20260902065702 60 225 10.0 14.0 0.00 0.00 0.00 87
20260902065623 60 225 10.0 14.0 0.00 0.00 0.00 87
20260902065523 59 224 10.0 14.0 0.00 0.00 0.00 87
20260902065402 59 223 10.0 14.0 0.00 0.00 0.00 87
20260902065306 59 223 10.0 14.0 0.00 0.00 0.00 87
20260902065202 59 222 10.0 14.0 0.00 0.00 0.00 87
20260902065102 59 221 10.0 14.0 0.00 0.00 0.00 87
20260902065002 59 221 9.0 13.0 0.00 0.00 0.00 87
20260902064902 59 220 9.0 13.0 0.00 0.00 0.00 87
20260902064802 59 219 9.0 13.0 0.00 0.00 0.00 87
20260902064702 59 219 9.0 11.0 0.00 0.00 0.00 87
20260902064623 59 218 9.0 11.0 0.00 0.00 0.00 87
20260902064503 59 218 9.0 11.0 0.00 0.00 0.00 87
20260902064402 59 218 8.0 11.0 0.00 0.00 0.00 87
20260902064302 59 218 8.0 11.0 0.00 0.00 0.00 88
20260902064202 59 218 8.0 11.0 0.00 0.00 0.00 87
20260902064102 59 218 8.0 11.0 0.00 0.00 0.00 88
20260902064002 59 218 8.0 11.0 0.00 0.00 0.00 88
20260902063902 59 217 8.0 11.0 0.00 0.00 0.00 88
20260902063802 59 216 8.0 11.0 0.00 0.00 0.00 88
20260902063702 59 216 8.0 11.0 0.00 0.00 0.00 88
20260902063602 59 216 8.0 11.0 0.00 0.00 0.00 88
20260902063502 59 216 9.0 11.0 0.00 0.00 0.00 88
20260902063402 59 215 9.0 11.0 0.00 0.00 0.00 88
20260902063302 59 215 9.0 13.0 0.00 0.00 0.00 88
20260902063202 59 214 9.0 13.0 0.00 0.00 0.00 88
20260902063103 59 214 9.0 13.0 0.00 0.00 0.00 88
20260902063002 59 214 10.0 13.0 0.00 0.00 0.00 88
20260902062902 59 214 10.0 13.0 0.00 0.00 0.00 88
20260902062802 59 214 10.0 13.0 0.00 0.00 0.00 88
20260902062702 59 214 10.0 13.0 0.00 0.00 0.00 88
20260902062602 59 214 10.0 13.0 0.00 0.00 0.00 88
20260902062502 59 214 10.0 13.0 0.00 0.00 0.00 88
20260902062402 59 214 10.0 13.0 0.00 0.00 0.00 88
20260902062305 59 214 10.0 13.0 0.00 0.00 0.00 88
20260902062202 58 214 9.0 12.0 0.00 0.00 0.00 88
20260902062102 58 213 9.0 12.0 0.00 0.00 0.00 88
20260902062002 58 214 9.0 12.0 0.00 0.00 0.00 88
20260902061902 58 213 9.0 12.0 0.00 0.00 0.00 88
20260902061802 58 214 9.0 12.0 0.00 0.00 0.00 88
20260902061723 58 214 9.0 12.0 0.00 0.00 0.00 88
20260902061503 58 214 9.0 12.0 0.00 0.00 0.00 89
20260902061402 58 214 9.0 12.0 0.00 0.00 0.00 89
20260902061302 58 214 9.0 13.0 0.00 0.00 0.00 89
20260902061202 58 214 9.0 13.0 0.00 0.00 0.00 89
20260902061102 58 215 10.0 13.0 0.00 0.00 0.00 89
20260902061044 58 214 10.0 13.0 0.00 0.00 0.00 89
20260902060902 58 214 10.0 13.0 0.00 0.00 0.00 89
20260902060802 58 213 10.0 13.0 0.00 0.00 0.00 89
20260902060723 58 213 10.0 14.0 0.00 0.00 0.00 89
20260902060602 58 212 11.0 14.0 0.00 0.00 0.00 89
20260902060523 58 212 11.0 14.0 0.00 0.00 0.00 89
20260902060402 58 212 11.0 14.0 0.00 0.00 0.00 89
20260902060302 58 211 11.0 14.0 0.00 0.00 0.00 89
20260902060223 58 211 11.0 14.0 0.00 0.00 0.00 89
20260902060002 58 213 11.0 14.0 0.00 0.00 0.00 89
20260902055902 58 213 11.0 14.0 0.00 0.00 0.00 89
20260902055802 58 214 10.0 14.0 0.00 0.00 0.00 89
20260902055702 58 214 10.0 14.0 0.00 0.00 0.00 89
20260902055602 58 215 11.0 14.0 0.00 0.00 0.00 89
20260902055502 58 216 11.0 14.0 0.00 0.00 0.00 89
20260902055402 58 216 11.0 14.0 0.00 0.00 0.00 89
20260902055306 58 217 11.0 14.0 0.00 0.00 0.00 89
20260902055202 58 217 11.0 16.0 0.00 0.00 0.00 89
20260902055102 58 217 11.0 16.0 0.00 0.00 0.00 89
20260902055002 58 217 11.0 16.0 0.00 0.00 0.00 89
20260902054902 58 217 11.0 16.0 0.00 0.00 0.00 89
20260902054802 58 217 11.0 16.0 0.00 0.00 0.00 89
20260902054702 58 217 11.0 16.0 0.00 0.00 0.00 89
20260902054602 58 217 11.0 16.0 0.00 0.00 0.00 89
20260902054502 58 216 11.0 16.0 0.00 0.00 0.00 89
20260902054402 57 216 11.0 16.0 0.00 0.00 0.00 90
20260902054323 57 216 11.0 16.0 0.00 0.00 0.00 90
20260902054223 57 216 11.0 16.0 0.00 0.00 0.00 90
20260902054102 57 216 11.0 15.0 0.00 0.00 0.00 90
20260902054002 57 215 11.0 15.0 0.00 0.00 0.00 90
20260902053902 57 215 11.0 15.0 0.00 0.00 0.00 90
20260902053802 57 216 11.0 15.0 0.00 0.00 0.00 90
20260902053702 57 215 11.0 15.0 0.00 0.00 0.00 90
20260902053602 57 215 11.0 15.0 0.00 0.00 0.00 90
20260902053502 57 215 11.0 15.0 0.00 0.00 0.00 90
20260902053402 57 214 11.0 15.0 0.00 0.00 0.00 90
20260902053302 57 213 11.0 15.0 0.00 0.00 0.00 90
20260902053202 57 213 11.0 15.0 0.00 0.00 0.00 90
20260902053102 57 213 11.0 15.0 0.00 0.00 0.00 90
20260902053002 57 212 11.0 15.0 0.00 0.00 0.00 90
20260902052902 57 212 11.0 15.0 0.00 0.00 0.00 90
20260902052802 57 211 11.0 15.0 0.00 0.00 0.00 90
20260902052703 57 211 11.0 14.0 0.00 0.00 0.00 90
20260902052602 57 211 11.0 14.0 0.00 0.00 0.00 90
20260902052502 57 211 11.0 14.0 0.00 0.00 0.00 90
20260902052402 57 210 11.0 14.0 0.00 0.00 0.00 90
20260902052306 57 210 11.0 14.0 0.00 0.00 0.00 90
20260902052223 57 210 11.0 14.0 0.00 0.00 0.00 90
20260902052102 57 209 11.0 14.0 0.00 0.00 0.00 90
20260902052002 57 209 11.0 14.0 0.00 0.00 0.00 90
20260902051902 57 208 10.0 14.0 0.00 0.00 0.00 90
20260902051823 57 208 10.0 14.0 0.00 0.00 0.00 90
20260902051702 57 206 10.0 14.0 0.00 0.00 0.00 90
20260902051602 57 206 10.0 14.0 0.00 0.00 0.00 90
20260902051502 57 205 10.0 13.0 0.00 0.00 0.00 90
20260902051423 57 205 10.0 13.0 0.00 0.00 0.00 90
20260902051302 57 205 9.0 13.0 0.00 0.00 0.00 90
20260902051202 57 204 9.0 13.0 0.00 0.00 0.00 90
20260902051102 57 203 9.0 13.0 0.00 0.00 0.00 89
20260902051002 57 203 9.0 13.0 0.00 0.00 0.00 89
20260902050902 57 203 9.0 12.0 0.00 0.00 0.00 89
20260902050802 57 204 8.0 12.0 0.00 0.00 0.00 89
20260902050723 57 204 8.0 12.0 0.00 0.00 0.00 89
20260902050602 57 206 8.0 12.0 0.00 0.00 0.00 89
20260902050502 57 207 8.0 12.0 0.00 0.00 0.00 89
20260902050402 57 209 8.0 12.0 0.00 0.00 0.00 89
20260902050303 57 210 9.0 12.0 0.00 0.00 0.00 89
20260902050223 57 211 9.0 12.0 0.00 0.00 0.00 89
20260902050004 57 215 9.0 14.0 0.00 0.00 0.00 89
20260902045902 57 216 10.0 14.0 0.00 0.00 0.00 89
20260902045802 57 217 10.0 14.0 0.00 0.00 0.00 89
20260902045702 57 218 10.0 14.0 0.00 0.00 0.00 89
20260902045602 57 218 10.0 14.0 0.00 0.00 0.00 89
20260902045502 57 218 10.0 14.0 0.00 0.00 0.00 89
20260902045402 57 218 10.0 14.0 0.00 0.00 0.00 89
20260902045306 57 218 10.0 14.0 0.00 0.00 0.00 89
20260902045202 57 217 10.0 14.0 0.00 0.00 0.00 89
20260902045123 57 217 10.0 14.0 0.00 0.00 0.00 89
20260902045002 57 217 10.0 15.0 0.00 0.00 0.00 89
20260902044902 57 216 10.0 15.0 0.00 0.00 0.00 89
20260902044802 57 216 10.0 15.0 0.00 0.00 0.00 89
20260902044702 57 215 10.0 15.0 0.00 0.00 0.00 89
20260902044602 57 215 10.0 15.0 0.00 0.00 0.00 89
20260902044524 57 215 10.0 15.0 0.00 0.00 0.00 89
20260902044402 57 214 9.0 15.0 0.00 0.00 0.00 89
20260902044302 57 214 9.0 15.0 0.00 0.00 0.00 89
20260902044202 57 215 9.0 15.0 0.00 0.00 0.00 89
20260902044123 57 214 9.0 15.0 0.00 0.00 0.00 89
20260902044002 57 215 8.0 11.0 0.00 0.00 0.00 89
20260902043923 57 216 8.0 11.0 0.00 0.00 0.00 89
20260902043823 57 216 8.0 11.0 0.00 0.00 0.00 89
20260902043702 57 216 9.0 12.0 0.00 0.00 0.00 89
20260902043602 57 216 9.0 12.0 0.00 0.00 0.00 89
20260902043502 57 216 9.0 12.0 0.00 0.00 0.00 89
20260902043402 57 216 9.0 12.0 0.00 0.00 0.00 89
20260902043323 57 216 9.0 12.0 0.00 0.00 0.00 89
20260902043202 57 216 9.0 12.0 0.00 0.00 0.00 89
20260902043102 57 216 9.0 12.0 0.00 0.00 0.00 89
20260902043023 57 216 9.0 12.0 0.00 0.00 0.00 89
20260902042902 57 215 9.0 12.0 0.00 0.00 0.00 89
20260902042802 57 214 9.0 12.0 0.00 0.00 0.00 89
20260902042702 57 214 9.0 11.0 0.00 0.00 0.00 89
20260902042602 57 213 9.0 11.0 0.00 0.00 0.00 89
20260902042502 57 213 9.0 11.0 0.00 0.00 0.00 89
20260902042402 57 212 9.0 11.0 0.00 0.00 0.00 89
20260902042323 57 212 9.0 11.0 0.00 0.00 0.00 89
20260902042202 57 211 9.0 11.0 0.00 0.00 0.00 89
20260902042102 57 210 9.0 11.0 0.00 0.00 0.00 89
20260902042002 57 209 9.0 12.0 0.00 0.00 0.00 89
20260902041902 57 209 9.0 12.0 0.00 0.00 0.00 89
20260902041802 57 208 9.0 12.0 0.00 0.00 0.00 89
20260902041702 57 208 9.0 12.0 0.00 0.00 0.00 89
20260902041602 57 208 9.0 12.0 0.00 0.00 0.00 89
20260902041523 57 208 9.0 12.0 0.00 0.00 0.00 89
20260902041402 58 208 9.0 12.0 0.00 0.00 0.00 89
20260902041302 58 208 9.0 12.0 0.00 0.00 0.00 89
20260902041202 58 209 9.0 13.0 0.00 0.00 0.00 89
20260902041102 58 209 10.0 13.0 0.00 0.00 0.00 89
20260902041002 58 209 10.0 13.0 0.00 0.00 0.00 89
20260902040902 58 210 10.0 13.0 0.00 0.00 0.00 89
20260902040802 58 210 10.0 13.0 0.00 0.00 0.00 89
20260902040723 58 211 10.0 13.0 0.00 0.00 0.00 89
20260902040623 58 211 10.0 13.0 0.00 0.00 0.00 88
20260902040502 58 212 10.0 13.0 0.00 0.00 0.00 88
20260902040402 58 212 10.0 13.0 0.00 0.00 0.00 88
20260902040302 58 212 10.0 13.0 0.00 0.00 0.00 88
20260902040202 58 213 10.0 13.0 0.00 0.00 0.00 88
20260902040002 58 214 9.0 13.0 0.00 0.00 0.00 88
20260902035902 58 214 9.0 13.0 0.00 0.00 0.00 88
20260902035823 58 215 9.0 13.0 0.00 0.00 0.00 88
20260902035702 58 215 9.0 13.0 0.00 0.00 0.00 88
20260902035602 58 215 9.0 13.0 0.00 0.00 0.00 88
20260902035502 58 216 9.0 13.0 0.00 0.00 0.00 88
20260902035402 58 216 9.0 12.0 0.00 0.00 0.00 88
20260902035305 58 216 9.0 12.0 0.00 0.00 0.00 88
20260902035202 58 217 9.0 13.0 0.00 0.00 0.00 88
20260902035102 58 218 9.0 13.0 0.00 0.00 0.00 88
20260902035023 58 218 9.0 13.0 0.00 0.00 0.00 88
20260902034902 58 218 9.0 13.0 0.00 0.00 0.00 88
20260902034803 58 218 9.0 13.0 0.00 0.00 0.00 88
20260902034702 58 218 9.0 13.0 0.00 0.00 0.00 88
20260902034602 58 219 9.0 13.0 0.00 0.00 0.00 88
20260902034502 58 219 9.0 13.0 0.00 0.00 0.00 88
20260902034402 58 219 9.0 13.0 0.00 0.00 0.00 88
20260902034302 58 220 9.0 13.0 0.00 0.00 0.00 88
20260902034202 58 219 9.0 12.0 0.00 0.00 0.00 88
20260902034102 58 219 9.0 14.0 0.00 0.00 0.00 88
20260902034002 58 220 9.0 14.0 0.00 0.00 0.00 88
20260902033903 58 220 9.0 14.0 0.00 0.00 0.00 87
20260902033802 58 221 10.0 16.0 0.00 0.00 0.00 87
20260902033723 58 221 10.0 16.0 0.00 0.00 0.00 87
20260902033602 58 221 10.0 16.0 0.00 0.00 0.00 87
20260902033502 58 221 10.0 16.0 0.00 0.00 0.00 87
20260902033402 58 221 10.0 16.0 0.00 0.00 0.00 87
20260902033302 58 221 10.0 16.0 0.00 0.00 0.00 87
20260902033202 58 221 10.0 16.0 0.00 0.00 0.00 87
20260902033102 58 221 10.0 16.0 0.00 0.00 0.00 87
20260902033002 58 221 10.0 16.0 0.00 0.00 0.00 87
20260902032902 58 221 10.0 16.0 0.00 0.00 0.00 87
20260902032802 58 221 10.0 13.0 0.00 0.00 0.00 87
20260902032723 58 220 10.0 13.0 0.00 0.00 0.00 87
20260902032603 58 221 10.0 13.0 0.00 0.00 0.00 87
20260902032502 58 221 10.0 13.0 0.00 0.00 0.00 87
20260902032402 58 221 10.0 13.0 0.00 0.00 0.00 87
20260902032305 58 221 10.0 13.0 0.00 0.00 0.00 87
20260902032223 58 221 10.0 13.0 0.00 0.00 0.00 87
20260902032102 58 221 10.0 13.0 0.00 0.00 0.00 87
20260902032002 58 221 10.0 13.0 0.00 0.00 0.00 87
20260902031902 59 221 10.0 13.0 0.00 0.00 0.00 87
20260902031802 59 221 10.0 13.0 0.00 0.00 0.00 87
20260902031702 59 221 10.0 13.0 0.00 0.00 0.00 87
20260902031602 59 221 10.0 13.0 0.00 0.00 0.00 87
20260902031523 59 221 10.0 13.0 0.00 0.00 0.00 87
20260902031402 59 222 10.0 14.0 0.00 0.00 0.00 87
20260902031302 59 222 11.0 14.0 0.00 0.00 0.00 87
20260902031202 59 221 10.0 14.0 0.00 0.00 0.00 87
20260902031102 59 222 10.0 14.0 0.00 0.00 0.00 87
20260902031002 59 222 10.0 14.0 0.00 0.00 0.00 87
20260902030902 59 223 11.0 15.0 0.00 0.00 0.00 87
20260902030802 59 223 11.0 15.0 0.00 0.00 0.00 87
20260902030702 59 223 11.0 16.0 0.00 0.00 0.00 87
20260902030602 59 223 11.0 16.0 0.00 0.00 0.00 87
20260902030502 59 223 11.0 16.0 0.00 0.00 0.00 87
20260902030402 59 223 11.0 16.0 0.00 0.00 0.00 86
20260902030302 59 223 11.0 16.0 0.00 0.00 0.00 86
20260902030223 59 223 11.0 16.0 0.00 0.00 0.00 86
20260902030002 59 223 11.0 16.0 0.00 0.00 0.00 87
20260902025902 59 223 10.0 16.0 0.00 0.00 0.00 87
20260902025802 59 223 10.0 16.0 0.00 0.00 0.00 86
20260902025702 59 223 10.0 16.0 0.00 0.00 0.00 86
20260902025602 59 223 10.0 14.0 0.00 0.00 0.00 86
20260902025523 59 223 10.0 14.0 0.00 0.00 0.00 86
20260902025403 59 224 11.0 14.0 0.00 0.00 0.00 86
20260902025306 59 224 11.0 15.0 0.00 0.00 0.00 86
20260902025202 59 225 11.0 15.0 0.00 0.00 0.00 86
20260902025102 59 225 12.0 15.0 0.00 0.00 0.00 86
20260902025002 59 225 12.0 15.0 0.00 0.00 0.00 86
20260902024923 59 225 12.0 15.0 0.00 0.00 0.00 86
20260902024803 59 226 12.0 15.0 0.00 0.00 0.00 86
20260902024723 59 226 12.0 15.0 0.00 0.00 0.00 86
20260902024602 59 226 12.0 15.0 0.00 0.00 0.00 86
20260902024523 59 225 12.0 15.0 0.00 0.00 0.00 86
20260902024402 59 225 12.0 15.0 0.00 0.00 0.00 86
20260902024302 59 225 12.0 15.0 0.00 0.00 0.00 86
20260902024202 59 224 11.0 15.0 0.00 0.00 0.00 86
20260902024102 59 224 11.0 15.0 0.00 0.00 0.00 85
20260902024002 59 224 11.0 15.0 0.00 0.00 0.00 85
20260902023902 59 224 11.0 15.0 0.00 0.00 0.00 85
20260902023802 59 224 11.0 15.0 0.00 0.00 0.00 85
20260902023702 59 223 11.0 15.0 0.00 0.00 0.00 85
20260902023603 59 223 11.0 15.0 0.00 0.00 0.00 85
20260902023502 59 223 11.0 13.0 0.00 0.00 0.00 85
20260902023423 59 223 11.0 13.0 0.00 0.00 0.00 85
20260902023302 59 224 11.0 13.0 0.00 0.00 0.00 85
20260902023202 59 224 11.0 14.0 0.00 0.00 0.00 85
20260902023102 59 224 11.0 14.0 0.00 0.00 0.00 85
20260902023002 59 224 11.0 14.0 0.00 0.00 0.00 85
20260902022902 59 224 11.0 14.0 0.00 0.00 0.00 85
20260902022802 59 224 11.0 14.0 0.00 0.00 0.00 84
20260902022702 59 224 11.0 14.0 0.00 0.00 0.00 84
20260902022602 59 224 11.0 14.0 0.00 0.00 0.00 84
20260902022502 59 224 11.0 14.0 0.00 0.00 0.00 85
20260902022402 59 224 11.0 14.0 0.00 0.00 0.00 85
20260902022305 59 224 11.0 14.0 0.00 0.00 0.00 84
20260902022202 59 224 11.0 14.0 0.00 0.00 0.00 84
20260902022102 59 223 11.0 15.0 0.00 0.00 0.00 84
20260902022002 59 223 11.0 15.0 0.00 0.00 0.00 84
20260902021902 59 223 11.0 15.0 0.00 0.00 0.00 84
20260902021802 59 222 11.0 15.0 0.00 0.00 0.00 84
20260902021702 59 222 11.0 15.0 0.00 0.00 0.00 84
20260902021602 59 221 11.0 15.0 0.00 0.00 0.00 84
20260902021502 59 221 10.0 15.0 0.00 0.00 0.00 84
20260902021402 59 221 11.0 15.0 0.00 0.00 0.00 84
20260902021302 59 221 11.0 15.0 0.00 0.00 0.00 84
20260902021223 59 221 11.0 15.0 0.00 0.00 0.00 84
20260902021102 59 221 10.0 15.0 0.00 0.00 0.00 84
20260902021002 59 221 10.0 15.0 0.00 0.00 0.00 84
20260902020902 59 220 10.0 14.0 0.00 0.00 0.00 84
20260902020802 59 221 10.0 14.0 0.00 0.00 0.00 84
20260902020702 59 221 10.0 14.0 0.00 0.00 0.00 84
20260902020602 59 221 10.0 14.0 0.00 0.00 0.00 84
20260902020502 59 221 10.0 14.0 0.00 0.00 0.00 84
20260902020423 59 221 10.0 14.0 0.00 0.00 0.00 84
20260902020302 59 222 10.0 13.0 0.00 0.00 0.00 84
20260902020202 59 222 10.0 13.0 0.00 0.00 0.00 84
20260902020123 59 223 10.0 13.0 0.00 0.00 0.00 84
20260902020002 59 224 10.0 13.0 0.00 0.00 0.00 84
20260902015902 59 224 10.0 13.0 0.00 0.00 0.00 84
20260902015802 59 224 10.0 13.0 0.00 0.00 0.00 84
20260902015702 59 225 10.0 13.0 0.00 0.00 0.00 83
20260902015602 59 226 10.0 13.0 0.00 0.00 0.00 83
20260902015502 59 227 10.0 13.0 0.00 0.00 0.00 83
20260902015402 60 227 10.0 13.0 0.00 0.00 0.00 83
20260902015305 60 228 10.0 14.0 0.00 0.00 0.00 83
20260902015202 59 228 10.0 14.0 0.00 0.00 0.00 83
20260902015102 60 227 10.0 14.0 0.00 0.00 0.00 83
20260902015002 60 227 10.0 14.0 0.00 0.00 0.00 83
20260902014902 60 227 10.0 14.0 0.00 0.00 0.00 83
20260902014823 60 227 10.0 14.0 0.00 0.00 0.00 83
20260902014723 60 227 11.0 14.0 0.00 0.00 0.00 83
20260902014623 60 227 11.0 14.0 0.00 0.00 0.00 83
20260902014502 60 226 11.0 14.0 0.00 0.00 0.00 83
20260902014423 60 226 11.0 15.0 0.00 0.00 0.00 83
20260902014302 60 226 11.0 15.0 0.00 0.00 0.00 83
20260902014202 60 226 11.0 15.0 0.00 0.00 0.00 83
20260902014102 60 226 11.0 15.0 0.00 0.00 0.00 83
20260902014002 60 226 11.0 15.0 0.00 0.00 0.00 83
20260902013902 60 226 11.0 15.0 0.00 0.00 0.00 83
20260902013802 60 226 11.0 15.0 0.00 0.00 0.00 83
20260902013702 60 225 11.0 15.0 0.00 0.00 0.00 83
20260902013602 60 225 11.0 15.0 0.00 0.00 0.00 83
20260902013502 60 225 11.0 15.0 0.00 0.00 0.00 83
20260902013402 60 225 11.0 15.0 0.00 0.00 0.00 83
20260902013302 60 224 11.0 15.0 0.00 0.00 0.00 83
20260902013202 60 224 11.0 15.0 0.00 0.00 0.00 83
20260902013102 60 223 11.0 15.0 0.00 0.00 0.00 83
20260902013002 60 224 11.0 15.0 0.00 0.00 0.00 83
20260902012902 60 224 11.0 15.0 0.00 0.00 0.00 83
20260902012803 60 224 11.0 15.0 0.00 0.00 0.00 83
20260902012702 60 224 11.0 15.0 0.00 0.00 0.00 83
20260902012602 60 225 10.0 15.0 0.00 0.00 0.00 83
20260902012502 60 224 10.0 15.0 0.00 0.00 0.00 83
20260902012402 60 225 10.0 13.0 0.00 0.00 0.00 83
20260902012308 60 225 10.0 13.0 0.00 0.00 0.00 83
20260902012223 60 225 10.0 13.0 0.00 0.00 0.00 83
20260902012102 60 225 10.0 13.0 0.00 0.00 0.00 83
20260902012002 60 225 10.0 13.0 0.00 0.00 0.00 83
20260902011902 60 224 10.0 13.0 0.00 0.00 0.00 83
20260902011802 60 224 10.0 13.0 0.00 0.00 0.00 83
20260902011702 60 224 10.0 13.0 0.00 0.00 0.00 83
20260902011604 60 224 10.0 14.0 0.00 0.00 0.00 83
20260902011504 60 224 10.0 14.0 0.00 0.00 0.00 83
20260902011402 60 224 10.0 14.0 0.00 0.00 0.00 83
20260902011302 60 223 10.0 14.0 0.00 0.00 0.00 83
20260902011202 60 223 11.0 14.0 0.00 0.00 0.00 82
20260902011102 60 223 11.0 14.0 0.00 0.00 0.00 82
20260902011002 60 224 11.0 14.0 0.00 0.00 0.00 82
20260902010902 60 224 11.0 14.0 0.00 0.00 0.00 82
20260902010802 60 224 10.0 14.0 0.00 0.00 0.00 82
20260902010702 60 225 10.0 14.0 0.00 0.00 0.00 82
20260902010602 60 226 10.0 13.0 0.00 0.00 0.00 82
20260902010502 60 227 10.0 13.0 0.00 0.00 0.00 82
20260902010402 60 228 10.0 13.0 0.00 0.00 0.00 82
20260902010302 60 230 10.0 13.0 0.00 0.00 0.00 82
20260902010202 60 231 9.0 13.0 0.00 0.00 0.00 82
20260902010002 60 232 9.0 12.0 0.00 0.00 0.00 82
20260902005902 60 233 9.0 12.0 0.00 0.00 0.00 82
20260902005803 60 234 9.0 12.0 0.00 0.00 0.00 82
20260902005702 60 234 9.0 13.0 0.00 0.00 0.00 82
20260902005602 60 234 9.0 13.0 0.00 0.00 0.00 82
20260902005523 60 234 9.0 13.0 0.00 0.00 0.00 82
20260902005402 60 234 9.0 13.0 0.00 0.00 0.00 82
20260902005305 60 233 9.0 13.0 0.00 0.00 0.00 82
20260902005202 60 233 9.0 13.0 0.00 0.00 0.00 82
20260902005123 60 233 9.0 13.0 0.00 0.00 0.00 82
20260902005002 60 233 9.0 13.0 0.00 0.00 0.00 81
20260902004924 60 233 9.0 13.0 0.00 0.00 0.00 81
20260902004823 60 233 9.0 13.0 0.00 0.00 0.00 81
20260902004702 60 233 8.0 13.0 0.00 0.00 0.00 81
20260902004602 60 232 8.0 13.0 0.00 0.00 0.00 81
20260902004503 60 232 8.0 13.0 0.00 0.00 0.00 81
20260902004423 60 232 8.0 13.0 0.00 0.00 0.00 81
20260902004302 60 233 7.0 13.0 0.00 0.00 0.00 82
20260902004202 60 233 7.0 12.0 0.00 0.00 0.00 82
20260902004102 60 234 7.0 12.0 0.00 0.00 0.00 82
20260902004002 60 234 7.0 12.0 0.00 0.00 0.00 81
20260902003903 60 234 7.0 12.0 0.00 0.00 0.00 81
20260902003802 60 234 7.0 12.0 0.00 0.00 0.00 81
20260902003702 60 233 8.0 12.0 0.00 0.00 0.00 81
20260902003602 60 234 8.0 16.0 0.00 0.00 0.00 81
20260902003523 60 234 8.0 16.0 0.00 0.00 0.00 81
20260902003423 60 233 9.0 16.0 0.00 0.00 0.00 81
20260902003323 60 232 9.0 16.0 0.00 0.00 0.00 81
20260902003223 60 231 9.0 16.0 0.00 0.00 0.00 81
20260902003102 61 230 10.0 16.0 0.00 0.00 0.00 81
20260902003002 61 229 11.0 16.0 0.00 0.00 0.00 80
20260902002902 61 228 11.0 16.0 0.00 0.00 0.00 80
20260902002802 61 227 11.0 16.0 0.00 0.00 0.00 81
20260902002723 61 227 11.0 16.0 0.00 0.00 0.00 81
20260902002602 61 226 11.0 15.0 0.00 0.00 0.00 81
20260902002502 61 226 11.0 15.0 0.00 0.00 0.00 81
20260902002423 61 226 11.0 15.0 0.00 0.00 0.00 81
20260902002306 60 226 11.0 15.0 0.00 0.00 0.00 81
20260902002202 61 227 11.0 15.0 0.00 0.00 0.00 81
20260902002103 60 227 11.0 15.0 0.00 0.00 0.00 81
20260902002002 60 229 10.0 13.0 0.00 0.00 0.00 81
20260902001902 61 229 10.0 13.0 0.00 0.00 0.00 81
20260902001802 60 231 10.0 13.0 0.00 0.00 0.00 81
20260902001702 60 232 10.0 13.0 0.00 0.00 0.00 81
20260902001602 61 233 10.0 13.0 0.00 0.00 0.00 81
20260902001523 61 234 10.0 13.0 0.00 0.00 0.00 81